GFSSGP_700_rhum_000.txt.gz
RH
3 1 7 12 18 17 17 26 39 45 48 50 46 51 59 66 71 78 81 43 26 43 55 56 45 43 39 40 40 41 42 24 27 29 30 30 31 31 29 30 28 32 31 37 40 36 30 20 17
3 3 9 15 25 20 20 32 33 44 47 39 41 43 59 63 34 35 56 44 28 28 51 54 48 44 41 46 46 36 23 29 29 28 27 27 28 23 21 21 22 22 20 19 21 21 19 19 18
2 6 15 23 17 16 25 31 49 46 40 42 44 59 69 75 83 75 43 42 28 26 37 37 38 36 36 23 16 19 27 25 21 20 23 24 20 21 23 23 19 15 15 16 16 14 14 14 13
10 12 14 18 16 21 25 42 44 44 46 47 42 52 62 79 79 60 32 31 43 28 31 22 14 12 12 15 20 23 24 20 22 21 9 9 10 14 10 10 11 14 18 20 17 11 7 8 12
8 12 19 18 23 26 35 38 31 41 44 43 42 69 79 77 85 42 31 31 24 18 14 11 10 12 16 21 22 21 21 21 12 4 3 5 11 6 8 8 9 10 11 11 10 8 5 6 8
17 21 21 18 25 30 34 33 41 40 39 41 43 61 87 72 60 32 24 20 19 16 14 14 18 20 16 18 24 19 10 9 4 3 5 8 9 9 11 13 15 15 14 13 13 16 17 17 14
22 21 23 25 27 31 36 37 28 26 32 34 41 62 77 88 29 26 23 21 19 14 14 19 19 15 21 14 7 7 8 6 5 5 8 11 13 13 14 16 17 17 18 18 18 20 21 22 24
20 20 21 31 27 26 28 26 25 26 34 34 36 48 59 68 26 26 22 22 23 19 18 18 17 20 5 8 8 7 5 5 5 7 10 13 15 14 17 18 19 20 20 22 23 24 26 26 27
18 16 21 20 19 20 18 15 19 20 32 32 44 42 54 23 26 23 19 21 22 20 21 22 24 11 15 22 24 25 25 26 26 25 21 26 27 28 29 32 32 33 34 36 36 36 36 35 34
16 13 14 12 12 13 13 13 13 17 27 28 35 58 65 38 16 18 23 24 26 27 32 40 28 18 27 31 34 34 34 34 33 33 33 35 37 36 36 34 34 33 33 31 33 33 34 35 38
14 14 12 11 11 11 12 12 11 16 18 19 29 36 60 16 7 6 13 57 74 63 81 71 25 25 33 39 43 40 41 42 40 40 41 43 42 40 39 37 36 34 32 30 29 32 32 33 37
14 13 12 12 10 10 10 11 11 13 14 16 24 31 62 63 19 45 78 76 69 88 91 66 22 31 39 42 42 43 44 45 46 46 44 44 45 44 38 38 38 36 38 35 32 31 31 31 32
15 13 13 13 10 15 16 15 17 15 16 18 24 36 58 75 82 83 80 84 63 94 78 79 53 36 36 40 43 43 42 42 41 42 42 47 50 40 33 32 30 31 33 34 34 35 34 32 30
14 14 14 16 20 16 16 18 17 21 17 17 26 38 51 66 72 75 75 73 86 87 86 71 64 52 37 37 41 42 43 44 44 46 47 50 46 36 37 40 38 36 38 43 43 38 34 32 30
16 18 19 21 24 24 18 23 19 23 22 21 21 27 38 48 58 64 66 74 78 74 80 100 93 72 56 38 41 46 43 46 48 48 49 52 47 46 46 48 53 52 51 51 48 43 39 37 35
17 18 19 22 22 24 23 22 21 23 23 23 23 23 26 38 49 53 60 70 72 83 84 90 94 60 49 38 45 50 46 48 51 52 58 57 60 63 60 59 58 59 60 60 54 46 42 40 43
20 17 18 24 22 24 22 24 22 25 27 26 24 25 25 27 41 48 54 57 65 68 80 93 92 54 61 46 57 52 50 51 53 59 71 69 77 70 66 71 71 71 70 65 56 59 55 48 48
20 15 14 13 23 19 17 19 24 26 27 26 25 23 25 27 32 47 56 60 69 73 76 82 89 69 80 69 50 72 60 53 58 55 72 72 72 71 77 79 80 82 79 62 67 64 64 48 43
17 15 14 20 24 21 19 22 24 28 27 30 29 29 29 31 30 50 61 69 72 75 75 73 71 84 90 77 51 45 51 63 58 57 61 67 73 78 82 83 84 65 56 68 70 65 54 50 46
19 18 17 21 24 20 24 20 27 31 34 33 35 38 39 44 52 58 60 66 58 40 46 62 66 67 68 69 54 56 62 61 60 64 64 74 83 92 91 86 84 68 50 47 56 57 52 50 44
23 22 32 30 29 24 24 24 28 32 37 41 42 45 52 55 54 58 59 54 43 41 41 46 47 49 54 57 65 64 64 62 63 70 92 93 90 84 55 75 62 57 51 50 50 51 52 49 44
28 37 31 30 27 23 22 21 29 33 39 46 50 50 54 57 61 70 61 36 38 45 54 58 58 59 61 65 72 69 66 69 82 82 56 56 54 54 55 59 58 58 54 52 49 48 49 46 43
39 32 24 34 30 26 24 26 31 32 37 46 56 60 63 65 69 72 59 50 50 55 58 60 61 61 62 60 59 61 70 84 64 60 56 51 49 60 68 65 63 61 58 52 45 37 32 29 27
30 42 36 36 34 36 25 29 43 36 42 49 61 69 72 71 75 63 58 58 55 58 63 66 63 64 65 72 77 78 68 56 57 61 60 57 69 72 70 71 69 51 41 33 28 27 29 24 16
36 36 36 49 52 48 36 30 45 46 47 52 60 67 78 84 82 84 88 90 71 67 66 69 73 79 83 80 73 63 60 67 75 75 72 82 81 82 82 66 51 42 34 16 9 10 49 30 44
41 39 47 54 59 38 31 23 45 52 54 54 60 66 73 82 85 91 78 70 78 70 56 55 45 53 65 73 68 72 76 75 79 87 95 92 92 80 61 52 28 10 8 11 13 22 52 80 94
46 46 33 42 53 50 24 41 50 52 56 57 60 65 68 74 79 77 98 100 93 100 91 75 80 80 83 78 77 74 76 88 98 98 96 92 63 29 21 11 10 12 14 31 38 68 92 94 89
40 36 41 41 61 51 29 31 57 53 59 57 53 57 61 73 93 95 98 90 91 90 79 82 89 83 80 94 88 100 99 97 90 82 64 41 22 12 10 10 10 22 44 57 60 72 86 86 85
46 45 45 36 44 50 52 34 41 46 50 55 59 62 67 69 78 87 98 95 94 92 74 89 92 98 89 95 100 99 90 81 62 63 41 18 12 11 11 19 42 56 58 74 86 97 96 100 100
42 46 43 50 46 52 64 51 48 51 58 60 66 78 79 77 71 73 71 74 78 91 90 93 95 85 80 98 100 74 61 56 43 27 20 14 11 11 18 39 54 54 48 30 38 32 38 46 56

GFSSGP_700_rhum_006.txt.gz
RH
14 11 4 6 16 19 25 38 53 51 47 48 46 54 52 58 59 63 52 50 50 47 57 58 60 48 41 36 36 38 39 36 22 26 24 21 22 18 7 11 13 9 6 9 12 13 14 11 11
15 14 6 14 24 26 48 49 54 60 66 55 41 48 49 42 47 47 46 41 37 49 60 59 54 43 37 38 36 37 36 22 25 23 19 17 8 3 6 6 5 7 10 8 6 7 5 5 6
11 10 14 26 20 21 44 44 59 54 63 60 43 51 41 51 51 32 56 43 39 50 54 55 45 39 40 35 25 17 15 23 23 19 16 3 2 4 5 5 9 14 14 14 13 12 12 11 7
7 14 17 28 26 29 29 43 53 54 51 50 44 36 47 65 70 40 53 36 42 47 51 52 48 40 25 14 13 15 18 20 19 18 2 3 6 9 10 14 17 18 18 18 18 18 18 18 18
5 14 21 23 46 39 43 42 43 50 42 49 44 54 54 54 44 47 49 37 43 38 39 37 21 9 10 13 17 20 18 17 15 3 4 9 13 16 18 20 22 24 26 27 27 27 27 26 25
15 18 22 29 45 47 44 46 46 42 44 44 39 45 50 40 20 38 34 28 30 27 21 12 12 15 17 14 12 16 10 7 5 5 10 17 22 23 24 25 25 26 27 29 30 31 30 31 31
18 29 30 44 47 51 48 34 37 40 40 43 42 41 48 42 28 32 25 20 16 14 13 14 18 17 10 6 5 4 4 5 6 15 24 24 27 26 25 26 28 29 31 30 29 28 29 28 28
21 22 33 40 44 30 50 32 35 35 51 47 53 35 43 40 27 27 23 20 19 19 18 18 18 10 2 4 6 10 14 19 25 28 30 29 29 29 32 34 32 32 31 29 26 27 29 28 27
21 22 23 36 35 47 29 22 33 35 33 44 43 37 32 24 25 26 23 19 18 19 18 18 13 12 9 12 19 26 31 32 31 30 31 32 33 35 37 35 36 37 35 33 30 26 26 27 28
20 17 25 32 36 29 22 22 20 25 32 33 32 35 31 19 23 25 24 20 20 19 20 23 22 13 18 27 28 33 33 34 34 38 39 38 37 36 36 37 38 40 41 42 38 30 28 30 31
18 15 13 20 27 16 12 12 14 12 18 14 13 25 33 20 44 30 18 13 10 29 32 37 32 22 26 34 35 40 38 39 40 40 39 37 39 42 43 43 46 46 49 47 42 39 36 35 33
17 13 11 13 13 12 12 13 18 18 15 18 19 20 23 25 28 9 8 18 59 62 55 57 50 51 35 36 36 40 40 40 39 41 38 39 41 43 46 46 47 54 58 55 50 47 44 41 37
13 14 13 10 11 12 12 11 15 15 16 18 21 25 24 38 44 40 39 50 74 76 73 76 74 73 65 47 44 40 38 39 39 41 42 44 42 44 50 51 53 63 67 63 57 55 52 50 48
15 14 13 11 10 11 11 11 13 15 16 16 19 26 35 45 50 43 42 49 54 68 66 79 62 63 54 71 54 50 48 52 48 48 46 45 40 46 55 58 58 59 64 66 65 64 61 55 53
14 13 4 4 8 8 9 14 18 18 17 16 20 23 32 45 45 45 46 46 51 52 45 52 74 78 78 65 53 63 70 56 50 49 47 45 42 44 53 57 58 59 61 62 64 68 73 70 58
13 17 19 20 23 25 20 20 20 22 18 21 23 21 23 36 45 48 52 63 58 55 73 81 68 76 67 65 60 69 73 70 60 53 50 48 55 62 65 71 76 69 64 65 69 48 52 66 66
13 18 19 20 24 25 26 23 23 22 23 26 24 22 30 39 52 62 77 70 67 66 84 77 90 76 81 71 68 52 64 75 74 60 56 60 70 92 98 96 82 67 68 40 38 39 38 44 39
16 18 18 19 23 24 25 23 23 24 27 26 24 23 23 25 40 61 75 72 67 75 75 76 79 82 93 69 54 62 72 68 67 69 76 75 77 85 88 72 76 64 51 50 47 46 46 43 41
20 21 18 22 23 23 23 23 25 27 27 28 29 29 28 26 40 53 58 66 65 68 70 76 83 85 71 65 68 77 74 79 82 83 87 97 96 90 78 80 66 56 56 60 58 57 55 49 45
24 24 24 24 23 21 30 32 31 30 30 30 29 30 30 32 46 51 55 58 63 68 76 79 74 72 85 89 87 83 81 84 99 100 98 83 70 77 72 62 61 59 63 64 66 65 62 60 58
24 25 26 29 27 28 31 42 37 44 37 33 34 35 39 41 50 56 52 55 59 60 66 63 62 66 68 68 69 73 91 95 81 69 71 71 61 56 57 58 63 71 78 83 87 87 90 85 75
28 30 30 28 21 20 28 43 58 58 44 40 36 37 37 44 44 48 44 46 39 54 58 66 67 67 68 68 68 67 66 65 70 66 52 55 48 37 32 53 81 88 91 91 92 93 95 80 43
30 28 19 17 22 27 30 39 57 50 50 48 46 45 40 41 30 26 29 36 55 54 57 60 57 55 57 57 40 38 38 38 44 40 41 44 51 58 70 100 100 99 99 79 66 48 20 14 8
38 37 38 39 38 41 41 38 54 50 44 48 47 47 47 38 38 39 37 34 47 53 52 47 46 39 34 38 42 46 45 45 48 51 56 66 78 85 76 95 88 77 53 32 18 13 13 10 8
36 38 43 54 65 57 42 44 58 54 53 51 51 55 55 48 56 67 59 45 52 52 54 53 55 64 60 65 60 57 60 66 66 90 100 99 92 99 90 50 39 32 28 24 22 21 14 11 15
41 38 42 64 72 49 46 58 63 62 59 66 68 61 63 63 69 82 76 60 62 73 72 78 86 97 95 85 87 78 80 100 100 100 98 98 98 89 54 44 43 42 36 30 17 8 8 12 38
38 30 38 44 50 50 54 58 57 61 61 68 74 71 67 76 82 79 76 72 66 70 65 89 96 93 79 69 69 72 98 100 100 99 49 50 38 64 62 76 77 50 21 16 16 18 18 32 51
26 35 37 38 56 64 53 55 54 57 61 62 61 59 68 79 79 80 71 68 75 83 99 99 90 81 85 80 64 43 54 48 37 20 18 76 93 89 91 94 93 50 29 22 20 34 38 27 8
48 46 33 35 42 62 79 52 57 58 63 63 57 60 68 78 82 76 74 76 82 95 89 76 68 70 83 80 32 20 16 14 13 22 33 62 75 96 89 100 100 80 23 22 36 20 8 12 21
36 45 38 36 59 49 63 57 62 60 58 57 58 61 70 72 75 76 77 76 78 77 76 79 85 79 64 20 16 16 14 13 22 20 41 57 73 88 94 94 95 45 40 54 26 7 17 21 26

GFSSGP_700_rhum_009.txt.gz
RH
18 10 11 16 12 18 18 32 51 56 56 61 73 66 60 60 58 60 61 54 55 54 52 55 58 61 50 44 36 38 40 41 26 25 23 20 17 6 4 6 6 8 12 9 4 4 4 4 6
27 18 23 8 18 24 46 47 57 56 57 64 64 60 60 66 60 55 52 49 49 41 46 56 61 52 45 38 38 39 38 30 23 24 21 16 3 4 6 6 11 15 15 14 13 10 12 12 8
17 14 11 18 19 24 43 59 58 55 60 64 61 58 58 59 44 57 46 36 31 39 50 60 58 47 40 40 38 24 18 18 23 22 18 2 6 8 10 14 17 19 20 21 21 21 21 20 19
12 10 17 21 22 20 36 50 49 48 54 49 77 48 45 53 54 43 33 30 35 44 56 56 47 41 43 36 14 14 16 20 21 18 3 7 12 15 18 20 24 25 25 26 26 27 29 30 30
7 12 21 24 31 46 32 53 52 52 52 52 53 48 46 41 43 46 44 32 38 43 51 53 50 40 14 11 15 19 20 17 16 5 6 13 20 22 24 25 25 27 28 28 27 26 25 26 26
10 20 19 26 48 44 47 54 51 51 48 44 46 46 46 56 50 50 34 35 53 55 43 26 12 13 18 17 13 14 13 6 5 6 15 23 25 26 26 28 31 31 32 30 28 26 24 24 25
16 18 24 39 47 45 50 51 46 48 45 41 46 40 45 38 45 35 26 30 45 22 12 13 17 18 13 7 6 4 5 6 12 23 25 27 28 27 31 34 34 36 35 32 32 28 25 24 24
18 26 27 54 54 53 50 54 47 38 41 49 49 37 29 27 38 26 21 16 14 14 16 20 17 10 2 4 6 10 18 24 27 28 29 30 33 36 36 36 36 37 38 39 40 34 27 27 29
21 21 31 50 47 56 45 49 36 41 33 41 40 39 22 15 26 25 23 21 20 20 19 13 10 12 8 15 21 26 28 29 28 31 36 38 37 36 39 40 40 41 42 45 44 40 34 34 34
23 20 20 37 36 43 39 32 36 32 35 36 35 35 28 10 18 24 24 21 19 20 17 17 16 11 21 29 29 32 33 32 35 36 36 36 33 33 34 38 42 44 46 52 55 47 43 41 40
23 14 20 28 38 41 33 24 15 26 30 18 15 28 34 16 13 19 23 22 22 21 27 30 21 23 28 32 32 36 38 39 40 36 34 33 32 32 34 38 44 49 51 52 58 59 52 50 47
24 14 20 32 31 32 19 15 14 17 16 18 19 17 18 17 27 14 15 12 30 52 48 51 44 45 40 32 35 40 41 41 40 40 38 36 36 38 37 43 52 55 57 58 59 63 63 62 61
14 12 16 18 30 18 14 14 15 14 14 18 20 23 25 38 42 38 39 35 38 38 55 48 51 52 64 54 49 44 44 40 40 44 43 44 45 46 45 52 61 59 61 60 57 58 59 57 56
13 12 12 11 11 13 12 12 14 13 14 15 18 25 27 38 48 46 44 42 42 43 42 44 39 59 76 75 63 61 51 52 54 55 58 52 51 50 49 65 65 62 60 60 61 63 67 47 44
14 13 5 12 13 11 11 11 15 15 16 16 19 23 27 47 54 54 62 58 58 57 51 62 77 85 84 84 72 62 55 58 66 68 69 61 55 52 64 64 64 63 71 70 71 72 63 40 36
13 15 16 12 12 11 11 15 16 18 20 18 23 25 40 50 56 62 74 70 68 58 77 83 84 95 99 86 76 74 75 72 77 77 77 73 72 67 70 72 79 82 84 73 77 68 50 48 50
15 16 19 21 24 25 19 24 20 21 21 21 23 23 28 44 53 60 70 75 79 81 84 89 97 95 78 93 95 81 74 77 83 77 76 74 80 82 82 97 98 89 81 78 77 64 55 52 53
13 16 18 18 20 24 26 24 24 22 21 24 24 23 24 26 35 53 56 69 72 82 84 86 81 82 90 100 81 73 73 74 78 79 75 81 92 92 100 95 95 81 74 68 60 56 57 58 57
20 21 21 22 18 21 26 24 24 22 24 23 23 22 22 24 24 30 51 58 69 78 80 80 82 77 96 71 66 79 77 76 86 86 89 94 98 99 92 74 75 71 54 38 34 49 65 68 67
19 23 24 24 23 24 26 25 24 24 25 26 27 30 30 29 28 31 45 56 65 74 73 75 87 81 72 68 76 78 86 92 97 99 99 96 85 77 76 67 54 39 38 37 49 71 72 70 74
26 24 24 24 27 26 28 50 49 38 34 36 38 37 39 47 47 46 48 56 59 60 63 67 63 64 77 85 93 88 78 75 73 73 75 75 63 51 45 42 45 53 50 63 80 78 77 78 74
27 27 27 28 27 36 34 66 69 61 61 61 55 58 54 54 48 47 34 34 43 47 56 64 68 69 64 69 62 58 55 53 51 49 49 48 49 48 47 40 56 66 82 97 81 61 63 55 31
35 31 28 27 29 32 35 48 63 64 61 56 53 57 59 55 40 27 27 31 37 52 57 64 65 60 53 54 47 42 40 43 44 45 45 47 46 41 39 75 91 99 95 64 45 36 32 32 31
35 38 40 39 38 42 44 43 62 58 51 50 50 51 57 62 38 42 39 38 43 42 40 58 60 59 60 52 48 58 65 62 59 58 58 62 68 77 82 98 96 91 64 63 46 40 38 35 27
34 37 42 52 63 63 49 48 50 55 57 51 46 50 57 53 55 55 52 47 48 55 56 56 55 52 44 57 66 67 73 81 78 73 80 98 98 99 90 36 29 56 66 74 74 61 50 29 22
38 38 42 58 75 50 50 56 58 56 57 59 62 66 63 54 67 62 48 59 64 66 72 72 69 63 77 81 77 69 78 84 67 78 93 90 54 25 18 42 85 78 98 91 92 59 63 26 20
30 23 38 40 52 51 57 62 61 61 62 63 62 67 65 69 59 58 69 78 78 76 76 71 72 82 86 78 78 82 82 63 33 20 14 13 11 27 34 97 98 98 96 98 95 46 28 29 26
33 34 33 37 56 65 59 62 59 64 64 65 64 65 60 60 66 72 74 79 84 82 79 85 85 74 72 68 76 66 42 20 15 14 12 12 12 21 49 68 71 97 96 96 76 48 37 25 5
44 30 28 32 44 63 81 59 54 56 59 61 61 60 59 62 71 74 82 90 90 96 93 78 58 59 66 67 52 28 18 16 14 12 10 10 11 20 60 71 86 97 96 91 66 44 25 8 18
37 28 32 30 48 46 59 46 42 54 60 62 63 60 58 62 69 82 96 89 98 96 80 76 56 58 47 23 18 19 16 12 8 7 7 6 6 31 87 97 88 91 92 63 56 40 16 16 23

GFSSGP_700_rhum_012.txt.gz
RH
12 13 12 41 22 16 18 21 48 65 77 82 79 79 76 76 72 70 68 59 65 76 65 59 57 62 58 46 42 40 43 43 32 25 25 20 11 3 5 5 8 14 16 16 16 12 10 10 5
24 16 14 21 15 20 39 50 54 64 72 84 82 81 75 86 76 68 72 66 68 74 61 56 58 61 50 47 41 42 37 37 23 26 23 13 6 7 8 13 18 21 22 24 24 25 25 24 22
30 18 15 11 9 24 37 62 62 69 71 67 72 80 76 78 62 68 84 77 63 49 56 58 62 55 48 42 41 28 20 18 23 23 17 5 12 16 18 21 25 25 25 25 26 26 27 27 27
16 15 14 14 13 18 40 61 64 73 76 72 57 70 70 75 69 73 58 50 43 54 56 62 62 52 43 43 24 13 16 19 22 18 4 11 18 22 24 25 25 26 28 29 29 27 24 24 24
10 12 19 19 28 34 30 57 59 67 66 67 48 49 62 41 52 45 36 34 47 54 60 63 50 45 40 12 14 18 20 17 15 5 10 21 25 26 26 30 31 33 34 33 32 31 27 23 22
6 11 21 22 46 41 42 55 60 64 58 58 53 59 58 41 47 47 40 46 52 67 59 56 44 17 15 18 16 13 14 7 5 11 24 27 28 27 31 33 34 35 35 36 37 36 32 27 26
12 14 23 32 50 51 54 55 64 59 52 52 52 46 43 52 50 41 48 52 54 54 29 13 15 19 18 10 9 5 5 7 21 27 29 30 33 35 35 36 38 39 40 42 43 41 36 33 34
20 20 26 42 52 55 56 58 47 48 54 54 52 40 28 31 44 29 36 40 32 13 15 20 20 13 2 4 7 14 22 28 29 29 34 36 36 34 34 38 40 43 46 47 51 50 44 40 40
15 23 27 44 51 50 56 39 62 52 47 49 44 33 13 25 30 24 22 18 17 19 21 15 10 9 8 18 22 25 28 29 30 35 36 38 36 34 34 35 35 42 46 47 49 51 52 49 47
22 22 25 47 42 50 44 41 58 54 49 40 41 33 20 18 24 23 23 20 20 20 17 11 14 11 21 25 28 32 33 34 37 37 37 36 35 34 34 34 35 40 50 49 52 53 54 54 54
22 18 18 26 41 39 42 46 55 40 37 27 19 32 26 13 19 24 24 23 22 16 13 16 16 20 24 28 33 36 37 40 41 40 40 39 40 41 42 41 39 46 55 54 52 52 55 56 55
21 18 28 28 34 38 37 44 34 22 22 19 19 20 14 22 20 12 15 18 14 32 34 31 33 46 47 39 37 39 41 42 42 42 43 47 51 49 47 47 46 61 63 61 57 55 53 48 45
20 17 22 26 30 34 37 30 19 17 19 20 22 23 34 36 35 35 34 35 45 39 40 49 57 59 69 71 62 64 58 50 50 52 57 60 58 53 53 50 56 66 65 60 67 65 61 63 59
19 15 17 30 35 22 18 19 16 15 15 17 22 24 34 43 47 47 47 47 46 43 55 72 82 84 80 82 80 79 80 67 60 70 70 64 69 66 61 58 63 70 72 77 76 76 70 68 69
13 12 12 12 23 15 12 12 14 14 16 18 24 29 37 52 58 61 64 64 68 75 70 73 93 97 88 86 92 83 91 75 72 80 77 74 74 68 74 77 78 79 92 93 90 83 77 74 61
14 10 9 15 13 12 11 13 14 18 18 19 25 27 36 48 57 64 68 68 68 67 74 79 84 87 96 88 80 96 88 88 78 76 75 76 71 72 86 86 88 100 98 94 82 87 78 69 49
14 18 19 14 13 14 13 23 15 18 19 20 22 24 32 42 54 65 70 66 68 68 77 79 86 88 99 100 99 97 84 76 80 82 85 81 78 96 89 100 89 96 96 74 76 76 64 41 30
14 15 19 20 24 25 24 20 25 19 22 21 22 23 26 32 45 50 58 62 59 72 76 81 86 88 97 98 85 74 78 81 85 88 90 90 92 96 98 99 99 74 74 77 73 60 45 42 40
20 17 19 19 19 21 23 26 26 24 22 21 24 24 25 28 38 42 46 57 59 80 84 90 86 88 89 88 73 69 80 90 93 97 91 92 100 96 85 75 73 72 64 54 47 41 45 52 47
21 21 24 25 24 21 23 25 26 24 21 22 23 23 24 25 29 32 42 59 74 78 77 79 84 88 80 65 80 92 90 89 80 72 68 62 56 52 50 51 54 51 49 39 35 49 63 74 74
20 27 27 24 26 28 31 34 31 25 24 27 30 36 37 44 52 48 60 61 62 59 59 64 67 60 59 66 67 70 66 59 54 50 48 48 48 47 46 46 40 35 33 25 65 66 68 88 82
26 30 29 25 25 35 36 60 58 41 41 47 51 55 60 57 48 48 44 30 30 33 42 47 53 61 66 63 65 66 56 45 44 45 44 46 50 54 54 49 35 45 58 55 93 61 64 66 52
29 32 32 30 30 34 36 42 60 71 68 62 67 71 68 54 54 54 35 42 52 45 37 37 49 60 61 56 43 40 39 41 50 55 48 49 55 62 62 50 54 72 55 32 29 30 50 77 65
31 33 33 31 32 41 38 40 57 55 43 57 62 60 59 60 58 46 47 61 48 42 47 58 58 52 46 45 47 54 62 68 73 72 70 71 65 50 36 56 57 19 23 43 46 65 88 71 60
34 36 44 53 64 66 53 49 40 42 49 56 53 55 61 58 55 54 62 63 56 55 62 66 68 64 66 69 79 83 81 78 76 75 64 44 30 26 16 13 12 17 21 67 53 94 96 96 84
37 41 40 57 78 58 52 56 49 44 52 58 56 62 65 63 58 59 65 66 54 63 70 77 80 80 90 90 76 62 60 63 61 46 26 16 14 11 9 8 7 8 36 72 42 91 99 87 75
36 33 41 42 52 54 53 54 51 51 57 58 60 63 62 62 62 69 57 55 60 72 80 87 93 100 94 72 60 51 49 33 13 12 14 10 7 6 6 5 7 94 79 99 97 98 93 78 71
33 37 32 33 54 64 59 61 49 53 56 60 61 60 62 65 65 58 56 61 68 74 83 93 96 90 90 77 54 29 12 14 15 11 8 6 6 6 6 7 61 98 93 95 79 75 71 60 43
38 31 25 27 43 63 81 53 47 51 51 54 58 63 65 65 60 59 63 71 78 82 97 99 98 98 91 61 18 16 16 12 10 8 7 7 6 6 6 8 11 30 54 62 78 85 81 75 24
44 37 28 27 38 46 55 36 41 52 58 59 63 64 64 63 59 63 70 82 97 99 98 99 100 96 70 23 18 16 14 11 9 8 7 7 7 8 9 15 21 42 57 88 92 96 92 72 18

GFSSGP_700_rhum_015.txt.gz
RH
10 11 11 25 29 20 21 30 31 76 86 94 91 90 85 72 83 78 56 68 66 72 68 66 67 66 53 46 50 43 45 42 30 26 25 18 5 6 8 13 19 21 24 24 24 24 24 23 21
10 12 7 28 30 20 28 30 59 79 85 94 93 95 92 87 82 88 75 71 71 82 72 70 68 68 59 51 46 44 41 38 24 25 20 5 11 16 19 22 24 24 24 24 25 25 24 23 23
12 18 10 12 14 17 44 72 71 72 77 73 82 84 80 80 80 89 70 72 81 73 70 66 70 65 54 51 44 41 28 18 21 21 12 9 18 22 24 25 26 28 30 31 30 29 28 25 22
24 19 15 19 16 13 52 74 60 64 60 72 71 60 68 86 74 72 100 96 86 68 70 70 71 57 52 46 46 18 16 20 21 16 6 18 24 26 26 30 32 34 34 33 33 32 31 28 23
17 15 15 16 21 27 24 66 62 60 52 58 53 51 54 58 76 97 93 95 78 75 72 68 59 51 48 42 14 17 21 16 14 6 19 26 27 29 33 34 34 35 35 36 36 36 34 33 30
8 12 17 27 46 42 32 49 68 68 54 63 61 47 42 51 85 80 77 78 73 68 60 53 49 48 22 16 20 16 15 8 6 21 28 28 31 34 34 37 39 40 41 41 41 42 39 38 37
6 11 21 47 52 57 58 60 71 64 46 48 69 51 48 53 69 65 72 75 67 64 56 50 26 16 19 16 13 7 6 8 25 29 30 34 34 34 36 38 40 43 44 44 43 42 44 44 42
16 19 26 52 55 60 67 73 61 76 44 56 71 50 40 58 54 56 62 58 52 44 18 16 19 17 5 4 5 11 22 28 29 32 36 36 35 34 35 36 39 42 44 46 44 44 46 50 50
22 24 27 47 54 58 66 58 48 46 55 56 56 32 24 47 38 44 42 31 19 14 19 20 16 7 7 14 23 30 31 31 34 39 38 37 36 37 38 39 39 39 41 45 51 52 48 49 53
17 23 26 44 50 45 53 48 47 56 63 56 49 28 21 36 25 22 20 20 20 20 19 15 12 13 25 30 33 34 35 36 40 40 40 40 41 43 46 47 45 40 38 43 52 55 51 51 52
22 22 20 43 44 50 36 37 48 65 54 30 30 24 19 16 25 23 21 20 20 20 19 17 15 24 32 37 39 41 41 43 43 43 44 44 47 52 50 51 50 45 47 55 57 51 51 46 46
22 23 22 31 30 32 37 41 49 57 35 25 22 30 14 13 17 18 19 19 21 23 23 22 31 34 36 41 43 45 46 46 46 47 49 52 55 54 54 55 55 51 58 65 63 63 66 57 43
22 22 23 26 30 41 39 39 48 34 25 23 26 35 31 29 31 31 30 39 46 44 44 49 56 64 58 50 49 50 52 52 50 53 58 64 62 57 65 67 65 68 72 74 61 76 75 67 56
22 21 17 22 36 38 38 35 20 23 22 23 26 42 44 43 46 47 43 56 56 60 63 74 71 62 74 70 60 74 82 83 81 81 86 95 70 65 74 69 72 75 80 80 87 82 87 78 62
21 15 14 27 33 39 33 28 16 15 18 22 31 42 46 52 55 55 56 60 62 65 74 78 89 89 78 74 84 91 86 81 86 89 89 90 95 80 73 80 88 80 84 76 86 91 90 70 62
13 12 13 18 36 17 15 16 14 16 19 24 27 32 41 46 58 66 67 68 74 77 79 82 83 88 97 94 99 77 78 94 93 87 87 91 87 84 87 96 86 73 87 93 96 73 67 64 62
14 13 11 15 14 13 12 16 14 18 19 20 24 25 33 40 47 61 64 66 73 74 80 82 83 85 87 97 98 89 81 85 84 88 90 89 94 93 84 73 86 98 89 70 65 62 54 48 46
14 19 16 15 16 20 13 22 20 17 20 22 21 24 26 33 43 55 54 59 59 59 72 80 88 86 94 93 91 78 75 83 82 80 86 88 84 70 66 76 70 62 58 53 52 51 52 49 45
15 14 19 20 22 24 25 25 27 26 20 23 22 22 27 32 42 44 49 54 56 61 74 89 92 89 85 94 80 69 68 73 68 72 66 57 51 52 55 56 56 57 57 54 47 34 23 25 16
21 21 22 23 19 20 20 22 24 26 25 22 22 24 28 34 43 45 50 52 58 70 84 80 74 78 72 62 58 63 62 58 56 53 51 50 49 49 48 50 51 47 47 46 36 23 14 15 13
21 22 25 26 26 23 23 26 25 24 25 22 22 24 27 30 36 48 49 55 56 48 41 35 41 49 56 63 64 61 60 52 46 42 40 41 44 40 41 46 49 44 36 21 14 13 13 11 13
25 27 27 24 27 36 30 32 28 26 25 24 26 34 44 51 52 49 46 36 36 44 41 36 36 37 46 51 59 52 47 49 50 50 51 54 49 43 39 29 21 16 14 13 11 11 16 25 36
27 32 30 29 31 29 33 38 36 36 35 33 43 53 59 53 44 44 50 48 44 51 53 45 46 52 49 46 50 52 54 58 56 52 51 49 43 33 21 16 15 13 10 8 9 11 24 57 56
29 34 32 32 33 40 34 38 38 35 28 42 58 67 66 53 54 58 45 51 57 60 50 52 59 63 69 69 72 69 68 68 58 55 51 36 18 16 15 13 8 6 5 5 8 24 89 54 44
34 39 45 49 56 46 43 46 35 34 35 48 57 64 64 61 59 49 49 59 67 61 56 62 66 73 83 86 90 91 79 68 57 40 18 15 15 11 7 6 5 5 5 7 19 87 88 68 75
31 38 36 57 60 50 53 59 42 40 38 58 64 60 59 60 58 57 59 67 56 56 61 66 75 82 93 96 97 91 86 75 42 19 18 14 10 7 6 5 5 5 5 6 72 100 73 75 57
39 40 40 42 50 51 47 49 41 43 43 55 64 60 61 61 62 61 65 60 56 58 68 81 87 95 99 95 96 92 77 37 22 20 13 10 8 6 5 5 6 6 7 9 38 69 37 44 71
42 34 40 36 52 50 46 50 36 33 36 50 59 58 58 60 61 66 65 58 58 67 77 86 96 100 99 99 97 80 31 23 20 14 10 8 6 6 6 6 7 8 14 26 39 40 65 82 92
41 39 27 28 36 41 49 32 22 26 41 42 45 51 54 60 65 67 63 59 65 77 90 90 100 98 97 98 80 35 26 21 16 11 9 7 6 7 8 8 9 14 24 31 53 79 95 100 92
40 38 26 25 33 40 46 28 21 22 29 49 55 57 61 65 67 66 63 64 74 89 95 100 98 92 99 90 39 26 23 16 12 10 8 7 7 8 8 9 14 21 29 60 70 95 100 100 95

GFSSGP_700_rhum_018.txt.gz
RH
17 15 13 16 30 26 24 26 49 88 96 100 99 99 93 96 95 78 81 71 68 74 66 59 58 56 49 52 49 46 48 45 26 25 22 9 9 14 19 22 24 24 25 26 26 25 24 22 22
15 10 9 16 27 24 23 28 49 89 87 86 95 94 99 86 82 68 80 79 75 74 69 61 64 61 52 55 49 51 48 39 24 24 15 7 15 20 24 25 26 30 31 30 29 28 27 25 23
14 11 17 23 21 21 23 51 71 86 75 77 84 86 90 84 84 83 78 74 78 86 73 68 71 68 58 56 55 53 44 22 22 20 8 13 22 25 26 29 32 33 32 32 32 30 29 28 26
12 14 16 21 20 21 37 64 75 79 76 67 70 61 80 80 84 72 72 76 88 95 97 76 77 70 58 60 62 41 18 20 22 13 10 23 26 27 32 33 33 34 34 35 36 35 32 32 30
10 25 24 22 21 22 41 70 80 71 68 71 71 50 48 48 73 77 81 88 99 82 85 75 78 68 63 62 38 16 23 20 15 7 23 27 29 33 33 35 37 38 40 40 39 39 40 38 36
17 23 21 21 30 38 29 65 78 70 70 55 56 82 52 49 64 81 66 85 95 85 83 80 74 65 60 26 18 23 18 12 6 23 28 30 35 36 37 37 41 41 41 40 40 39 40 42 41
23 20 19 28 42 54 48 71 74 75 62 58 59 73 57 38 83 89 99 91 75 78 81 70 64 56 26 22 20 17 8 7 23 29 32 37 37 36 37 36 37 37 37 40 45 47 47 45 44
25 21 25 34 46 67 78 72 69 72 56 58 73 75 56 54 74 65 78 78 74 71 70 60 37 24 23 13 12 7 9 24 30 33 38 39 38 38 38 40 40 37 34 38 42 48 50 49 46
10 19 24 41 48 68 61 62 58 53 49 63 56 65 44 68 63 76 76 75 69 58 32 20 19 9 5 7 11 20 26 31 35 39 41 40 40 41 43 46 46 43 38 43 51 53 53 47 42
28 23 24 41 48 57 46 52 50 52 63 62 64 39 45 56 58 62 54 45 19 18 20 18 11 10 15 22 29 31 33 37 40 42 42 43 44 46 49 50 50 47 44 50 57 55 58 51 42
28 23 24 43 53 45 44 51 50 63 78 59 55 34 46 28 39 34 18 16 19 21 20 16 15 26 31 34 35 37 38 41 44 44 45 46 48 50 52 53 54 55 55 58 62 60 57 46 56
24 26 28 42 41 39 37 44 48 61 57 40 35 27 29 28 24 20 20 19 21 24 21 16 24 31 35 39 42 45 45 46 47 48 48 53 56 55 54 56 66 69 72 72 68 64 52 59 57
24 24 26 35 28 44 40 43 50 56 34 23 22 22 24 24 24 22 21 23 30 28 22 29 38 34 40 42 46 50 52 53 58 56 62 64 78 85 60 64 76 79 76 75 73 66 63 70 69
22 23 21 31 36 38 40 35 44 38 31 32 30 27 25 32 34 28 31 44 47 46 46 47 58 60 54 50 51 55 63 84 85 94 86 90 98 98 94 88 83 82 83 77 69 81 80 86 80
20 23 17 24 38 42 38 34 22 27 30 36 39 40 42 44 43 41 59 66 63 60 62 72 72 60 66 71 68 83 97 76 68 89 98 98 100 98 97 94 93 84 74 63 79 78 70 77 57
24 18 16 26 26 39 35 23 18 17 27 32 43 46 52 52 54 53 51 54 54 60 69 78 84 86 93 91 95 97 73 76 87 84 91 95 94 96 95 89 82 68 56 58 64 59 54 52 50
15 13 14 26 36 28 19 18 16 17 23 27 37 44 46 55 62 65 65 64 67 71 75 77 80 85 87 91 99 96 83 77 79 80 81 86 87 86 77 59 49 50 52 51 52 54 56 58 51
16 18 14 16 18 19 21 19 14 17 19 22 27 31 38 42 50 61 56 58 66 72 76 81 84 89 94 96 97 86 75 71 76 72 61 55 49 43 43 46 49 52 56 60 65 60 46 30 17
16 18 18 23 13 21 20 17 20 18 18 21 23 26 31 37 42 48 54 58 57 63 68 73 82 90 83 84 84 73 62 60 52 48 49 48 48 49 48 49 50 51 52 47 33 23 19 14 13
20 19 26 21 23 26 26 25 25 26 25 20 22 25 28 32 41 43 47 57 61 60 62 78 75 71 68 54 60 58 55 54 48 52 53 54 49 45 44 42 41 34 28 21 16 14 12 10 7
22 27 22 30 20 21 34 34 21 24 24 24 22 23 24 24 27 36 40 52 52 60 60 44 38 34 37 44 44 52 54 48 52 56 58 54 51 47 42 36 28 20 17 15 12 8 5 4 4
31 25 25 23 33 26 26 20 34 23 23 23 24 22 23 28 32 42 53 48 41 41 42 52 49 42 45 45 43 44 48 52 57 60 64 60 51 39 27 20 20 17 12 7 5 4 4 4 5
34 27 31 30 33 33 36 28 41 28 25 22 24 24 29 37 52 52 39 45 49 54 58 49 48 53 58 60 63 63 64 70 75 71 74 65 41 24 22 22 15 10 7 5 4 4 4 6 14
24 29 31 31 37 31 29 33 22 46 33 31 26 32 41 49 51 42 55 52 49 63 56 51 56 63 67 70 75 78 79 82 82 86 74 42 24 26 20 14 9 6 5 4 5 5 7 46 100
36 35 30 36 36 33 40 37 24 35 27 44 34 39 54 56 46 57 53 47 66 65 58 56 60 66 73 78 83 86 87 90 94 81 45 35 29 21 13 8 6 5 5 6 6 9 10 13 59
41 37 31 33 36 25 50 31 28 31 27 36 48 56 59 61 58 59 51 58 67 59 59 65 71 78 83 90 94 95 99 99 93 55 37 26 16 11 8 6 5 6 6 6 8 22 17 20 27
38 36 41 41 44 46 27 36 36 37 39 43 67 67 64 62 61 57 59 63 67 62 66 73 77 82 86 96 97 99 99 94 75 38 25 16 11 9 7 6 6 6 7 16 49 65 27 41 49
42 37 42 42 45 37 23 29 23 33 37 41 66 56 63 61 60 60 62 66 69 68 71 74 76 82 96 100 99 99 88 61 38 26 16 12 10 9 7 6 6 7 34 85 81 44 76 94 95
47 44 35 38 37 26 23 15 15 20 28 32 43 52 61 60 60 63 64 70 71 71 72 77 80 86 100 99 95 87 68 39 27 16 14 12 10 8 7 7 8 8 10 15 77 83 90 88 89
44 46 38 28 36 47 56 22 15 14 17 28 45 51 58 58 62 67 67 71 73 73 79 81 83 94 100 98 80 62 43 32 18 16 14 12 10 7 7 8 9 12 14 72 83 88 79 95 98

GFSSGP_700_rhum_024.txt.gz
RH
16 15 15 16 22 29 24 20 18 41 65 67 58 54 64 66 54 61 84 93 70 76 76 59 46 42 41 39 42 40 38 36 25 22 15 9 16 21 23 24 27 29 28 28 28 26 25 24 24
10 12 14 19 24 23 20 23 67 39 69 71 52 54 73 92 62 73 66 84 73 76 75 59 46 47 45 46 46 42 38 32 23 19 10 15 22 25 28 31 31 30 31 32 31 29 29 28 27
7 12 16 18 21 23 19 30 39 76 62 68 52 80 73 93 78 83 81 97 83 90 76 64 56 60 54 52 53 44 33 24 20 16 10 22 25 30 33 33 33 34 35 34 34 35 34 33 33
7 13 15 26 21 18 18 52 65 67 65 66 73 67 64 76 78 74 77 86 74 95 84 72 77 72 67 60 57 47 27 20 20 10 19 26 30 34 35 36 36 37 36 37 38 38 41 43 41
8 18 17 18 18 20 21 39 58 59 50 68 64 57 36 42 71 79 78 99 96 95 98 97 95 94 80 70 64 41 18 22 16 11 25 29 34 38 39 37 36 35 37 37 41 43 46 47 46
23 18 20 18 17 17 18 31 47 46 74 68 66 65 61 45 68 77 86 91 96 99 98 92 96 99 82 69 65 22 22 18 10 19 28 35 38 39 37 33 32 33 34 36 46 50 51 50 52
28 16 16 17 17 26 30 49 55 51 64 63 70 79 86 51 52 73 77 95 99 99 96 98 96 90 71 62 42 24 22 15 11 28 34 37 40 38 36 37 39 42 40 41 49 53 56 54 53
21 19 18 17 16 30 61 49 57 57 43 63 81 79 96 75 58 75 87 81 89 99 94 94 82 72 66 56 25 25 18 8 19 31 37 40 39 39 40 42 47 49 50 49 49 54 58 56 55
19 18 19 17 18 46 43 79 59 64 60 53 49 90 72 48 62 80 81 95 99 98 92 98 86 78 58 32 24 18 8 9 27 34 40 41 40 41 43 47 50 53 55 59 60 62 64 66 57
21 21 19 26 35 49 48 55 55 55 58 63 76 77 44 40 66 84 82 98 95 81 81 80 83 46 46 25 15 8 7 20 30 36 41 40 41 45 46 50 53 54 57 68 71 72 70 67 66
21 19 19 28 43 43 50 48 50 57 54 60 86 70 60 50 75 93 99 96 91 82 69 60 44 26 14 9 9 12 18 29 33 38 41 41 44 46 48 49 53 58 59 80 85 88 79 72 61
21 18 22 30 40 39 62 60 50 58 50 58 77 93 72 67 72 74 82 58 29 24 20 19 17 22 10 14 20 26 30 35 37 41 42 48 48 55 68 61 73 92 92 98 80 87 84 78 60
20 24 22 33 35 39 45 51 50 55 48 47 63 37 92 79 92 34 32 30 23 20 16 16 15 21 25 25 30 31 33 40 50 52 50 56 63 73 79 75 78 78 80 79 88 86 81 65 43
21 27 23 29 38 34 41 45 32 68 69 62 85 47 69 92 95 83 98 88 27 16 15 16 20 26 31 32 35 42 46 49 58 55 62 70 72 70 86 84 91 81 78 78 81 73 46 35 38
31 26 24 25 34 32 37 36 40 58 70 75 79 78 81 84 84 82 84 52 78 21 27 35 45 49 49 44 46 46 50 70 72 61 56 62 67 71 86 93 87 74 62 42 39 39 37 36 37
27 26 26 22 31 35 34 34 32 50 57 64 70 74 77 78 78 74 34 42 47 31 43 49 57 63 71 74 78 79 97 70 53 57 64 70 84 89 89 77 49 44 39 39 40 41 40 37 34
25 29 24 21 28 34 34 31 31 40 55 57 60 65 72 80 77 53 46 58 76 66 51 55 63 70 79 80 86 97 94 74 60 68 75 88 86 62 47 40 36 39 43 46 47 44 38 35 32
28 24 23 20 19 30 27 30 29 34 48 53 58 61 74 80 82 61 48 75 80 98 55 60 63 77 79 89 83 88 98 72 59 73 83 74 54 42 35 32 37 44 50 54 52 42 37 33 28
26 24 19 16 21 21 20 23 24 32 39 50 62 64 72 81 84 44 50 63 87 98 49 56 70 73 78 87 94 81 86 59 58 63 58 50 39 33 44 55 60 60 58 53 43 39 33 28 24
21 21 16 17 19 20 16 17 23 28 37 42 48 58 66 70 80 44 44 58 64 80 62 60 71 76 82 86 63 61 59 50 48 52 44 36 41 49 63 70 70 59 52 45 39 32 27 22 17
21 23 23 19 17 14 25 16 23 25 33 38 45 47 55 66 77 60 46 54 65 65 60 63 72 77 76 44 44 44 46 55 48 44 49 58 68 74 73 76 76 68 55 38 30 24 20 16 12
29 37 27 25 25 22 26 33 40 40 30 34 41 45 51 59 71 70 44 38 40 44 53 56 56 54 45 43 47 50 53 52 58 66 68 76 76 76 75 73 64 48 36 28 23 17 13 9 6
32 28 33 25 22 28 29 40 36 44 34 41 46 46 54 63 71 79 60 30 30 39 56 48 45 44 45 48 50 56 56 63 64 68 73 82 89 69 83 62 48 36 25 21 17 12 8 6 5
29 26 30 23 22 47 25 41 38 47 31 51 48 56 64 69 79 90 85 52 38 50 46 47 50 48 46 50 53 56 57 65 65 70 80 83 90 66 55 48 34 26 22 16 10 7 5 5 8
23 25 27 56 65 47 22 25 29 31 46 41 37 51 68 76 76 87 69 38 44 46 47 50 54 54 49 53 54 57 60 69 77 83 90 100 80 54 45 35 28 23 17 11 8 5 5 16 47
34 22 32 82 88 37 29 25 22 31 38 33 56 64 79 79 82 77 54 50 50 44 51 53 56 53 52 54 54 59 70 75 86 93 97 100 80 50 43 28 26 21 14 9 6 4 6 63 86
25 27 28 39 40 37 23 16 15 29 24 24 54 73 76 77 74 77 67 58 47 48 53 51 60 59 57 56 60 70 73 81 93 98 99 60 58 53 32 26 23 17 9 6 5 6 13 75 74
19 28 33 27 38 38 21 18 22 35 35 23 50 67 82 88 88 79 75 61 47 52 56 55 61 65 65 67 73 76 81 94 99 98 88 62 57 37 28 27 22 12 7 5 6 8 10 16 70
38 35 27 25 30 56 50 24 23 26 29 36 44 60 73 82 82 75 73 68 58 60 59 59 62 64 66 73 78 83 89 96 98 99 79 63 45 36 32 27 15 8 6 5 8 11 16 21 47
35 38 31 35 34 35 40 36 24 18 10 19 40 48 64 71 75 82 81 75 64 64 61 61 65 67 69 73 83 92 99 99 99 93 74 59 42 33 31 18 9 6 7 9 13 17 32 27 27

GFSSGP_700_rhum_030.txt.gz
RH
21 18 13 13 18 20 25 20 22 26 30 30 44 51 52 47 56 47 57 64 69 88 76 58 55 42 36 34 35 30 25 24 21 17 10 7 13 17 22 25 26 28 27 26 28 28 26 27 27
21 16 11 17 21 23 22 22 24 46 68 61 51 44 48 52 48 46 56 68 86 86 78 67 72 62 39 36 36 35 30 24 20 14 9 12 17 22 25 27 29 30 29 30 30 31 32 33 33
16 11 12 19 20 21 21 21 38 54 49 50 51 51 42 40 35 34 48 75 86 91 89 77 74 52 43 43 39 37 31 24 18 12 13 20 23 25 26 29 31 31 31 31 34 36 39 39 39
14 11 20 18 17 18 22 21 31 54 52 54 44 46 45 55 52 54 57 63 88 94 98 84 70 51 46 43 42 39 28 21 17 12 20 24 24 27 28 29 30 30 32 35 36 37 38 41 42
12 17 21 17 16 20 24 25 34 57 59 50 47 47 54 54 65 61 66 81 96 100 99 93 68 59 54 50 48 39 26 21 15 15 25 26 28 30 30 30 30 32 33 35 40 38 39 41 45
18 22 20 18 17 21 26 42 50 58 61 58 61 61 60 61 48 46 87 96 99 100 98 86 87 78 68 60 56 44 28 21 12 20 27 28 31 30 29 29 31 33 36 39 39 41 45 45 47
19 23 21 19 18 19 25 52 56 50 56 64 61 70 74 80 59 60 86 99 100 99 100 100 99 99 100 92 73 41 27 18 14 26 28 31 31 30 30 32 38 42 45 48 47 48 49 52 50
27 30 26 21 24 36 46 55 61 62 64 67 73 82 77 82 69 80 88 100 100 100 100 100 98 95 96 77 63 31 28 13 17 26 31 36 33 31 32 37 43 48 50 52 54 57 56 62 56
28 22 19 21 34 46 42 48 57 56 49 64 76 80 85 87 82 74 90 99 100 99 98 100 98 73 84 84 56 30 25 15 20 33 34 35 34 34 35 39 44 46 49 54 60 62 65 63 60
28 27 24 23 37 38 40 45 51 56 62 59 69 67 84 97 80 56 88 54 99 99 97 72 72 88 88 52 36 30 21 13 22 32 36 38 39 37 37 41 44 50 55 56 63 67 77 71 67
25 22 22 22 30 37 45 50 61 64 63 67 68 76 67 72 83 78 73 52 100 82 67 76 78 74 76 68 31 18 12 12 24 34 38 40 39 39 43 46 58 73 79 74 70 73 78 75 64
26 23 23 23 30 43 52 59 63 62 58 72 69 61 80 99 92 48 36 47 75 65 50 48 66 73 67 25 18 12 11 14 26 32 37 39 41 44 47 59 72 68 68 78 77 74 75 66 39
30 22 23 35 38 47 50 62 54 55 57 70 63 60 92 79 88 34 35 38 64 76 83 68 55 32 18 8 10 13 17 25 30 34 37 41 45 46 57 65 72 71 69 76 76 74 56 40 38
32 21 33 36 47 41 42 51 54 64 69 59 49 53 76 69 45 28 25 28 24 50 30 23 20 21 26 30 30 31 32 32 37 50 55 59 58 57 65 73 72 79 78 70 65 41 33 37 42
31 26 30 31 46 41 41 50 60 46 53 59 58 71 78 80 75 43 53 35 21 29 17 19 25 30 34 37 39 42 45 44 45 45 50 61 64 64 73 72 72 80 64 58 34 32 38 42 43
31 26 26 42 42 41 40 39 46 48 45 45 50 64 75 77 63 49 50 42 18 17 28 44 48 53 56 64 66 67 70 71 54 43 45 45 49 63 64 70 74 64 51 33 41 46 45 45 52
28 26 27 48 40 34 40 39 50 51 50 60 57 62 78 79 70 35 31 34 24 33 44 52 59 63 66 71 73 72 72 69 70 49 38 39 42 51 62 62 58 51 37 38 48 48 52 54 56
32 28 27 26 25 32 36 32 43 56 55 58 66 71 62 58 41 40 38 38 37 42 49 55 61 66 66 69 67 65 67 67 50 41 36 33 34 32 33 39 46 42 35 44 50 53 59 56 46
34 34 35 29 27 30 32 32 30 46 58 67 62 62 64 48 50 41 39 43 46 50 47 51 55 63 60 62 64 64 65 71 47 42 37 38 38 38 40 39 36 44 57 61 53 48 41 38 32
35 37 35 27 23 25 28 32 33 37 55 58 58 56 46 46 49 42 33 29 30 37 48 53 57 58 60 64 70 65 66 66 43 39 40 44 44 41 43 59 66 79 86 79 53 44 40 35 32
37 36 36 31 21 26 20 32 33 39 53 58 57 52 52 46 48 56 51 46 39 36 44 61 66 69 70 72 71 67 61 45 41 42 45 52 59 62 67 73 82 72 86 90 93 47 41 36 33
37 27 30 31 21 21 18 37 30 30 36 48 52 53 55 48 46 60 62 60 54 56 66 64 68 66 64 64 63 62 47 44 45 46 54 62 68 72 77 81 92 82 82 53 49 50 43 37 34
34 35 31 30 30 32 31 28 27 28 32 36 38 46 52 52 45 50 52 54 59 69 75 66 57 56 55 54 56 48 48 47 49 52 59 66 72 78 80 94 86 93 85 59 55 49 42 35 27
35 32 32 28 32 47 40 37 30 27 28 28 28 33 41 51 56 61 64 67 70 78 80 73 67 43 50 56 50 53 51 52 53 59 64 71 77 87 98 99 97 99 78 68 65 49 41 33 19
34 30 32 42 62 58 39 40 30 28 29 28 30 32 39 50 59 61 71 72 78 74 75 69 59 44 55 52 55 56 53 56 62 72 84 89 90 100 99 100 100 98 89 75 49 43 39 29 17
35 29 34 53 70 51 40 41 30 24 23 28 32 31 34 38 47 55 66 75 74 68 59 59 58 50 50 55 59 59 57 70 83 81 86 98 99 100 99 98 99 95 73 74 48 37 33 23 10
36 33 37 34 55 62 42 31 31 32 25 30 32 36 35 41 45 43 54 64 65 64 62 62 60 53 50 60 70 72 70 75 90 97 99 99 99 98 99 100 98 84 95 64 36 31 48 13 6
39 33 33 37 56 58 34 33 37 36 28 22 34 40 46 44 42 52 58 58 53 49 57 59 60 56 52 63 70 71 73 81 95 98 99 99 99 90 100 99 91 94 78 37 51 26 11 7 6
32 29 32 30 34 58 69 34 33 33 19 17 18 22 34 41 48 54 52 33 24 32 41 48 55 61 59 62 70 72 80 93 99 99 99 94 99 99 99 98 98 96 67 72 44 35 19 30 17
41 36 38 42 33 35 40 35 31 28 24 21 23 31 29 50 57 45 31 31 40 42 44 41 52 63 75 77 70 74 88 94 97 100 99 88 91 100 96 97 93 86 50 59 86 82 56 20 18

GFSSGP_700_rhum_033.txt.gz
RH
22 23 19 12 16 18 19 20 20 22 25 37 38 60 59 52 55 55 53 58 64 73 70 64 56 51 36 33 29 26 25 24 21 15 7 10 13 15 20 21 22 23 25 27 27 25 24 24 24
26 22 14 15 20 24 20 20 23 37 39 62 62 55 54 54 56 52 51 60 68 81 78 63 58 53 42 31 34 30 28 27 20 13 9 12 19 20 23 23 24 27 27 27 27 26 26 27 28
26 18 12 28 24 21 19 20 22 24 60 61 56 48 50 46 43 52 62 74 80 90 78 62 64 66 44 41 49 32 29 24 17 12 14 18 22 24 25 26 27 26 26 28 30 30 29 29 30
18 15 17 23 17 17 19 22 24 24 39 61 60 60 46 44 45 57 80 89 88 94 78 63 65 70 56 48 37 36 27 22 17 12 20 22 24 28 27 27 27 28 31 34 36 36 33 34 37
14 16 28 16 16 19 21 26 35 35 49 58 58 59 56 64 60 67 78 86 92 97 89 78 80 70 64 46 44 37 27 19 15 16 20 26 28 31 29 29 30 31 33 32 37 40 43 44 42
15 22 21 17 18 19 21 21 48 54 60 61 67 70 59 59 57 54 59 82 99 96 97 95 98 96 70 57 45 31 26 27 23 20 25 30 32 32 30 29 30 32 35 40 43 43 45 48 49
14 23 27 24 19 36 40 34 42 56 57 52 63 72 65 62 71 53 96 100 99 99 99 98 100 100 81 54 45 45 43 33 20 28 31 34 35 32 31 32 35 38 42 42 50 54 54 54 57
16 28 22 22 24 47 42 49 58 62 65 63 65 62 71 74 77 68 78 96 100 100 100 100 100 100 86 70 67 56 43 18 23 29 33 36 35 34 33 35 39 43 42 44 48 57 60 61 64
24 29 23 21 44 35 35 39 52 42 54 58 63 68 76 74 78 77 77 94 97 99 100 100 100 100 98 83 45 40 29 16 25 31 35 39 38 35 34 36 40 43 47 62 64 58 69 77 70
28 32 23 22 23 26 36 45 51 54 59 62 63 69 73 78 79 77 79 76 92 96 100 99 100 100 83 41 41 41 22 15 31 34 38 42 40 36 37 40 43 49 67 66 69 70 70 70 68
28 22 24 23 24 33 46 55 58 55 60 68 70 72 74 78 73 88 75 98 97 100 82 80 77 65 68 57 42 36 29 17 25 37 39 41 40 40 41 42 47 56 67 67 70 71 67 65 53
28 28 28 25 28 37 47 60 65 63 67 79 72 68 72 71 54 81 69 89 90 74 79 92 84 77 62 57 36 24 15 14 24 34 38 40 41 42 43 48 59 72 72 73 62 63 63 46 31
33 31 25 35 32 44 41 56 60 57 65 78 64 72 77 57 67 53 60 95 56 50 46 49 50 47 18 18 16 13 12 14 24 32 38 41 42 45 48 54 68 68 66 71 67 68 46 33 35
35 24 35 36 47 45 45 49 52 53 72 60 68 54 68 52 29 25 22 57 57 46 46 27 27 19 20 19 20 17 19 25 31 35 38 43 55 59 62 66 71 68 74 76 74 52 34 40 47
34 30 30 33 46 45 45 44 51 64 57 46 52 72 51 57 54 32 19 19 23 18 18 22 26 30 32 33 32 34 35 35 40 50 57 57 61 63 68 71 74 74 74 75 58 36 46 58 60
32 28 27 37 47 43 41 45 50 56 46 38 57 77 68 67 49 26 22 18 18 24 33 39 42 44 49 52 48 54 63 69 72 68 56 53 50 54 59 65 70 71 83 68 42 41 58 56 50
31 27 31 45 42 43 38 46 53 52 50 41 45 70 52 75 61 46 34 16 23 38 48 54 56 60 65 69 70 70 71 73 70 71 57 53 41 43 40 48 60 81 68 50 39 50 52 47 45
33 31 33 36 37 33 41 42 48 52 59 51 35 36 34 33 34 34 34 26 32 43 50 55 60 61 66 70 68 66 64 68 73 57 54 50 37 36 40 39 64 61 44 38 52 58 53 56 44
37 34 32 30 28 30 32 39 45 49 61 60 46 33 28 28 32 38 40 40 39 41 46 51 55 62 65 67 69 70 73 75 77 68 48 39 38 40 40 41 48 43 48 52 65 58 58 66 63
37 36 30 31 29 26 28 37 42 39 46 55 45 44 41 40 35 33 31 38 38 40 42 45 48 56 61 68 74 79 78 68 67 52 43 40 41 43 46 45 53 64 72 70 58 54 67 61 51
38 39 31 33 33 25 26 35 38 40 47 62 63 57 51 51 46 45 51 44 38 37 38 47 52 62 67 72 76 73 61 64 52 44 43 44 45 53 62 66 68 70 70 75 69 71 72 55 54
38 38 33 30 31 24 25 30 33 36 36 58 63 60 57 51 54 57 53 53 54 59 62 67 66 70 70 71 71 67 67 62 48 46 48 48 56 63 67 72 75 78 79 87 80 83 71 73 68
36 38 36 33 33 32 34 32 28 32 33 30 38 51 55 57 46 54 51 54 63 72 75 84 83 74 70 63 65 71 66 59 52 50 49 52 62 67 72 78 87 92 96 96 98 91 82 77 63
34 37 33 30 30 46 40 39 32 30 27 26 28 33 48 58 57 50 49 52 56 75 84 74 74 75 77 72 67 67 65 53 52 52 54 60 68 75 81 86 89 93 99 98 100 96 85 79 69
34 37 31 39 58 56 37 39 30 27 30 29 30 30 35 51 55 44 48 53 58 66 77 83 80 72 64 57 53 55 55 56 53 55 59 66 75 82 86 86 98 99 98 98 99 82 81 95 50
34 34 34 49 65 45 42 45 29 27 26 24 27 34 34 35 39 49 50 56 68 68 80 78 75 71 69 65 52 52 62 68 71 72 79 89 96 100 98 100 98 98 98 98 100 94 91 76 37
33 34 35 39 57 58 40 38 23 21 26 25 27 32 32 34 37 41 47 57 71 80 88 81 71 82 66 58 54 54 65 69 70 86 99 100 99 100 99 98 99 99 100 99 100 96 89 89 80
37 33 34 37 50 58 42 33 30 35 29 19 17 34 31 38 39 38 44 55 65 88 83 67 79 61 49 54 58 57 67 74 83 82 93 98 99 99 99 99 100 98 100 98 98 95 90 77 74
29 36 36 32 35 61 67 37 29 36 26 21 23 20 17 20 35 39 40 51 50 34 27 27 24 21 27 36 46 51 68 80 90 94 99 100 100 100 100 100 100 96 97 99 98 93 71 73 80
42 36 40 34 37 38 42 35 30 28 30 24 24 27 25 19 20 26 34 50 41 37 40 48 49 58 61 69 75 80 81 90 99 100 100 100 100 100 98 98 99 100 100 98 95 82 81 78 75

GFSSGP_700_rhum_036.txt.gz
RH
27 24 22 20 13 16 19 18 20 24 41 25 29 41 67 62 58 56 53 51 57 70 67 68 58 54 48 36 33 25 23 23 19 14 6 12 16 19 21 22 22 21 20 20 18 23 25 27 29
30 28 24 15 16 22 18 19 21 26 51 46 51 60 59 57 62 64 60 54 55 67 72 68 61 59 51 40 34 26 27 25 21 16 10 17 20 24 23 26 25 23 21 21 26 28 28 30 31
31 28 19 14 24 19 18 20 22 24 25 62 61 58 62 63 64 58 54 63 65 76 77 70 66 66 53 40 34 30 33 27 18 11 16 21 25 27 28 28 26 23 25 30 32 34 35 36 36
31 19 16 19 17 17 18 20 28 30 32 30 58 59 59 60 49 52 67 72 88 90 84 75 79 75 61 52 41 39 56 24 15 13 22 26 29 29 30 28 28 28 32 31 36 36 40 40 38
21 16 15 16 17 17 18 20 23 40 42 43 59 60 64 65 57 56 72 81 86 87 90 86 94 93 69 76 54 72 28 18 16 20 26 30 31 31 29 31 32 34 31 36 40 44 44 44 46
16 17 17 17 17 17 30 36 28 51 51 54 59 60 61 60 60 58 66 69 87 92 91 96 100 99 90 90 79 28 17 15 17 23 31 32 33 32 31 30 31 35 40 39 48 53 54 51 53
16 20 23 21 18 38 44 47 48 57 57 57 55 60 51 57 65 63 66 70 79 96 94 97 100 100 100 98 26 14 14 23 28 27 34 36 37 33 31 32 36 42 44 48 52 58 58 59 60
17 30 24 21 25 38 46 48 46 48 57 57 56 56 58 67 70 66 64 83 89 95 98 99 100 100 95 55 34 34 43 50 30 36 37 40 36 32 31 34 42 44 46 56 64 59 59 65 69
31 29 24 22 33 28 46 48 48 52 54 58 70 68 70 74 72 72 70 90 100 99 100 100 100 96 87 68 70 65 55 48 32 39 39 39 36 34 35 37 39 44 55 66 66 67 68 63 63
32 28 23 25 24 30 42 54 55 57 58 62 66 67 74 77 75 80 70 72 89 82 91 100 100 100 90 88 81 48 40 21 35 37 38 40 39 37 36 39 44 50 65 68 67 65 68 59 56
30 26 30 24 25 30 49 57 57 60 62 67 66 68 73 78 79 82 82 97 98 90 97 94 99 99 94 72 42 34 18 24 33 35 39 40 40 39 42 44 48 60 69 67 65 54 49 52 36
29 34 29 25 30 43 53 53 61 64 69 74 75 71 76 82 79 85 85 99 94 80 96 90 87 75 49 45 41 35 18 20 29 37 39 42 42 44 43 45 49 67 71 71 63 65 48 39 29
36 29 33 34 35 43 45 54 51 54 70 78 60 65 80 75 79 73 100 95 100 92 88 78 76 66 56 38 24 20 19 16 25 35 39 42 42 43 45 48 57 73 67 69 72 61 52 34 36
30 28 38 40 45 46 46 54 53 53 69 65 50 45 49 52 44 73 79 69 79 78 95 84 72 56 32 20 17 14 15 18 26 35 39 41 43 49 61 69 74 74 71 74 80 70 48 36 51
33 32 30 43 44 43 46 51 48 51 55 58 37 29 36 28 30 65 48 54 48 34 31 29 23 20 23 25 24 22 21 24 30 33 39 43 57 67 74 73 78 85 81 84 84 60 42 44 55
34 32 29 38 46 41 44 42 47 47 53 52 60 70 61 51 38 34 40 36 41 36 27 29 30 33 36 39 39 39 41 42 44 46 58 68 74 67 58 61 73 73 79 79 63 46 44 50 53
33 29 30 44 50 44 43 39 47 46 45 42 59 73 51 46 46 27 17 23 25 31 41 42 46 53 58 61 61 63 68 73 76 77 80 72 56 59 62 60 63 64 69 61 48 45 54 62 62
36 34 42 38 40 49 38 37 46 50 48 43 31 63 42 33 36 20 19 26 36 44 52 54 58 62 67 68 67 71 71 70 76 68 61 52 52 63 51 51 54 60 61 49 48 60 63 67 55
37 37 34 31 32 35 31 31 40 46 48 47 29 23 24 25 27 23 24 34 42 48 50 55 58 61 60 62 65 68 74 70 68 75 68 63 72 54 48 48 50 56 52 50 62 61 66 61 58
35 35 32 29 33 27 27 28 37 41 36 36 41 32 30 28 31 34 35 36 37 41 47 49 50 53 58 68 71 73 74 77 75 70 74 80 60 46 44 49 53 53 58 59 61 62 66 64 65
37 39 35 33 34 31 28 32 37 38 46 44 50 48 44 47 41 40 43 40 38 43 35 40 48 54 60 65 64 65 66 69 66 76 87 72 49 46 49 54 56 57 59 63 64 63 70 81 86
39 39 40 33 35 28 31 29 29 33 38 41 34 45 51 48 52 50 51 41 48 55 54 60 59 59 63 66 65 64 72 78 75 83 67 49 48 49 53 56 61 65 68 73 79 79 91 97 79
37 37 37 32 32 34 34 33 27 31 41 34 33 30 37 44 50 52 50 53 58 64 68 70 72 77 61 63 69 72 81 77 79 79 63 48 50 52 59 64 68 70 76 80 87 94 99 83 82
36 35 38 36 33 47 35 39 32 29 27 26 28 27 30 37 45 47 51 58 54 58 64 73 70 84 72 81 83 79 72 75 79 76 69 52 55 59 63 65 70 77 87 96 93 98 97 93 88
34 36 36 38 58 58 37 42 30 26 27 31 31 29 29 32 36 46 50 50 58 57 61 70 84 90 85 87 82 76 72 81 76 70 69 63 64 69 69 72 85 95 97 98 99 92 84 100 88
35 35 34 43 65 43 42 39 26 31 32 28 26 26 30 33 34 40 49 47 56 60 63 69 84 78 86 88 80 76 69 68 69 68 68 77 77 79 79 88 99 99 98 98 100 91 94 96 94
34 33 35 38 56 62 38 35 27 26 36 31 30 32 32 33 37 40 45 42 48 62 62 71 85 98 88 78 81 73 66 65 66 69 78 77 81 86 90 94 98 99 93 92 94 92 96 97 93
40 36 36 41 49 53 44 35 26 19 20 19 17 22 35 38 38 41 44 40 46 66 76 75 77 84 76 68 60 57 57 62 65 56 61 76 82 89 87 99 94 85 96 93 99 92 98 94 77
31 41 40 36 36 57 64 36 28 25 24 25 23 22 18 17 28 37 40 38 20 16 22 45 46 42 40 36 39 48 52 62 77 83 85 87 95 97 99 99 99 99 99 98 97 99 99 83 77
32 39 38 37 40 40 45 38 32 30 29 29 28 26 28 22 20 17 16 20 36 35 47 57 57 58 61 65 68 69 74 86 84 93 98 100 100 100 99 99 99 99 99 99 100 98 87 86 74

GFSSGP_700_rhum_039.txt.gz
RH
29 29 26 23 18 15 18 17 19 26 38 40 28 32 43 62 64 59 59 59 57 65 72 69 64 58 51 47 42 40 30 23 21 14 5 7 13 17 21 23 21 21 20 21 25 26 27 28 29
30 31 27 21 17 20 17 19 21 23 25 51 41 55 52 70 68 63 65 63 58 71 80 71 68 63 56 51 42 37 26 25 18 14 10 12 16 20 23 24 23 23 25 28 31 31 32 32 33
30 30 24 18 17 19 18 21 21 21 24 28 63 65 72 65 66 61 58 56 59 68 86 77 71 69 65 54 45 35 30 24 25 12 11 17 21 23 25 23 24 29 32 31 35 37 38 38 37
30 28 19 19 17 16 18 20 22 25 27 33 29 65 63 59 57 51 46 50 62 77 96 83 74 75 72 61 52 41 32 36 18 12 18 24 26 28 27 27 31 34 33 37 43 44 43 43 43
27 20 17 18 17 18 18 19 23 28 34 37 40 63 62 61 57 50 55 64 86 98 98 86 93 95 92 72 60 44 42 43 17 18 23 27 29 28 30 32 34 34 39 44 48 51 52 51 52
20 18 20 18 17 17 27 36 32 40 46 48 56 56 61 58 52 54 62 85 97 97 94 96 98 99 99 78 65 41 64 35 21 25 30 31 30 30 31 32 34 44 47 49 58 58 56 58 60
18 19 19 23 16 30 51 53 45 54 55 56 52 53 54 54 54 55 63 74 77 93 94 93 96 98 100 91 58 69 53 20 28 32 34 35 33 32 30 35 44 46 47 57 62 59 60 60 63
19 21 17 19 28 44 49 52 47 50 57 59 59 52 53 52 57 62 66 71 78 84 97 99 99 100 97 99 87 59 19 31 34 37 33 36 35 32 35 41 45 44 53 66 66 62 64 64 62
26 27 17 20 27 26 32 51 57 57 60 59 61 61 60 61 62 65 67 77 73 81 95 99 100 100 96 66 42 24 32 46 55 47 40 40 36 33 34 40 44 48 57 63 67 63 61 66 60
25 27 25 26 26 27 31 55 62 67 64 67 66 67 67 76 78 69 74 66 100 98 98 99 99 100 98 80 32 51 63 67 54 41 41 40 38 36 36 41 46 48 65 68 62 58 52 47 47
28 28 34 26 26 30 42 59 61 64 61 66 71 73 77 74 76 79 84 84 96 100 91 82 100 97 89 70 74 76 71 62 39 41 40 40 41 40 41 43 45 50 72 70 67 64 56 46 35
33 35 24 24 26 38 51 54 61 64 64 72 75 78 85 80 82 82 92 81 99 86 100 100 100 100 98 92 88 75 62 32 37 39 40 43 44 44 46 45 48 54 69 73 72 68 62 49 35
35 30 34 34 35 45 52 52 54 59 68 69 65 82 91 90 85 92 96 91 64 97 100 100 99 70 79 69 42 21 19 31 36 37 39 42 46 46 46 49 52 62 80 78 75 70 70 49 38
28 30 42 43 43 52 51 52 55 54 62 57 59 69 64 73 81 96 80 94 84 70 72 70 68 75 58 55 44 30 21 29 30 37 40 44 44 45 48 59 70 79 82 80 72 78 60 46 43
31 34 36 38 44 52 49 46 57 52 50 39 34 37 25 55 89 94 68 99 95 97 80 68 62 54 53 37 36 25 17 18 26 35 40 41 42 45 64 74 79 71 76 79 72 65 50 44 45
36 34 34 34 47 43 43 44 53 54 51 45 50 26 19 56 71 67 66 63 58 74 72 50 43 24 22 19 17 16 19 23 28 32 35 40 49 77 79 66 64 59 64 70 67 53 44 44 57
34 29 32 36 51 49 42 44 48 44 46 49 63 47 29 24 58 58 57 41 28 29 31 31 31 31 30 33 34 38 40 48 43 41 45 65 83 82 74 55 53 56 62 62 54 46 50 65 69
32 30 43 40 44 48 41 40 45 49 48 47 64 61 41 32 18 28 33 28 33 35 37 36 37 46 50 57 61 63 66 72 75 73 79 79 75 66 54 55 48 48 51 52 48 48 58 65 66
34 33 32 34 35 35 34 33 32 40 46 29 30 56 34 31 18 24 30 36 44 49 50 55 57 60 65 65 65 69 71 71 75 79 78 82 73 54 54 50 47 46 46 48 51 60 65 69 70
37 38 35 32 35 32 28 28 32 36 39 33 27 25 26 24 18 26 35 40 44 48 52 54 57 58 64 69 73 74 75 75 74 77 78 84 82 62 51 49 44 45 52 58 62 65 69 73 76
36 38 40 37 33 32 28 27 28 29 34 41 38 31 32 30 32 32 33 35 38 39 41 46 49 55 60 70 71 73 72 76 76 79 89 94 78 60 50 48 48 52 58 62 65 68 71 76 85
36 38 39 38 34 30 30 29 26 26 32 35 36 43 43 44 38 40 42 42 51 45 40 44 49 51 56 66 69 70 77 81 85 89 92 84 63 52 55 51 50 56 62 66 68 71 79 85 92
37 37 38 36 35 36 34 32 25 23 23 23 28 31 38 49 50 47 46 45 52 54 61 62 57 60 65 71 76 79 77 84 88 92 84 78 81 62 54 54 56 62 66 71 83 88 95 94 99
39 38 38 36 36 41 35 35 30 27 25 25 27 29 31 33 41 47 53 55 58 61 63 66 66 66 76 86 84 79 79 80 87 90 87 83 80 78 63 59 62 73 92 92 95 100 96 99 88
38 38 39 36 50 43 42 43 30 26 27 30 26 30 28 28 30 38 46 49 53 58 62 64 72 76 86 74 91 80 83 78 78 82 86 77 75 76 81 85 85 94 99 91 88 96 99 93 78
37 37 34 42 48 36 41 39 26 27 29 28 28 27 25 26 31 34 36 43 49 56 62 70 73 80 86 93 82 91 86 80 71 73 70 70 79 83 85 94 91 90 98 86 100 71 91 92 77
38 36 34 35 51 54 38 34 26 23 30 20 25 30 28 30 32 33 34 40 50 53 62 69 72 82 91 98 92 82 85 84 73 72 71 76 83 86 85 84 79 85 72 94 80 97 92 77 91
41 39 39 40 54 55 43 36 25 27 22 21 22 23 27 32 35 35 34 36 48 51 61 68 72 85 97 84 77 74 69 56 59 67 69 75 74 82 97 94 74 87 93 95 81 80 82 89 97
36 43 41 38 38 46 47 33 30 27 27 34 28 26 25 19 14 22 40 41 38 37 41 52 44 57 65 63 49 42 47 57 61 76 96 99 98 98 94 88 64 100 100 89 74 89 100 97 94
29 32 37 39 43 40 43 37 30 27 31 30 32 29 29 28 23 17 16 17 14 18 20 21 20 36 60 67 66 68 69 77 86 97 99 98 97 88 89 80 78 87 99 88 86 93 98 92 91

GFSSGP_700_rhum_042.txt.gz
RH
22 25 27 23 26 21 18 18 20 22 35 40 32 39 70 64 57 62 61 58 60 60 57 75 81 62 51 48 63 70 54 36 20 15 7 5 13 18 20 22 23 21 23 26 28 29 29 28 28
24 29 27 29 19 18 16 19 20 42 39 25 47 38 54 66 70 69 58 54 61 66 60 64 82 65 55 55 67 64 49 26 21 11 6 11 18 21 24 24 24 26 30 33 33 33 33 32 33
24 29 32 26 19 16 15 20 34 35 22 27 40 66 54 50 68 67 63 69 59 60 75 83 87 69 61 63 72 60 44 26 18 9 11 14 21 25 26 26 28 33 35 39 40 40 39 39 39
26 28 25 21 17 16 19 21 23 34 21 30 27 64 68 63 57 58 53 49 52 57 83 90 92 81 76 67 58 50 34 26 17 13 16 16 25 26 26 29 33 35 42 44 46 47 47 47 46
27 26 26 20 18 19 19 20 19 26 38 32 38 65 57 58 57 49 49 50 59 77 88 100 99 94 94 74 60 48 34 21 14 17 17 22 27 28 29 35 35 41 44 52 53 52 52 54 53
36 24 22 17 16 18 21 34 22 35 47 42 60 61 56 61 57 54 52 64 87 97 97 98 100 100 100 95 69 48 25 27 22 20 24 28 30 31 34 35 44 46 47 57 53 54 55 58 60
33 26 21 20 20 30 54 54 49 69 83 68 67 85 54 58 55 50 54 69 83 97 98 96 98 98 99 90 77 53 38 41 20 26 30 32 34 32 33 43 46 46 56 59 60 61 61 63 65
30 29 22 22 30 34 38 53 57 57 90 61 63 79 54 54 58 59 58 58 67 93 99 91 99 99 98 94 67 45 40 38 30 33 36 40 38 32 38 47 47 49 60 64 66 63 66 69 68
17 28 22 26 27 28 31 37 53 61 65 64 62 62 62 66 65 66 69 66 70 82 77 96 100 100 100 98 59 37 35 32 34 42 53 45 35 35 40 46 47 48 62 66 63 61 55 65 59
34 26 25 28 28 29 42 53 62 62 71 74 72 67 66 67 70 76 74 70 76 94 96 98 100 99 99 79 60 56 53 37 51 68 60 44 36 37 41 42 47 50 66 70 64 63 58 54 44
36 30 28 30 28 29 45 48 63 72 86 94 70 66 68 74 81 84 78 80 78 93 94 98 100 100 98 95 96 59 50 58 62 46 49 45 39 41 42 44 46 48 62 73 74 74 72 63 43
34 35 33 33 30 32 50 43 61 65 69 73 75 74 75 79 88 88 85 84 96 99 100 100 99 100 100 100 92 80 91 82 68 45 49 46 44 43 44 46 47 49 55 80 79 77 75 66 45
35 37 34 36 37 44 54 57 54 64 71 62 62 75 82 88 98 88 96 96 92 95 99 99 97 100 100 100 92 90 85 75 42 40 43 47 46 46 46 46 47 52 64 86 82 80 75 57 43
38 31 48 44 38 55 58 56 54 54 53 44 46 85 98 99 100 98 67 53 99 100 99 100 100 99 97 92 98 92 77 38 39 40 41 45 45 45 45 48 59 73 82 86 80 75 62 49 41
37 42 40 38 48 54 49 62 51 46 50 46 45 49 81 81 83 97 65 74 49 96 99 90 72 97 76 78 87 44 38 33 38 41 41 42 45 45 48 61 71 78 69 60 65 59 51 43 45
37 35 33 42 40 44 42 47 47 48 52 58 34 30 62 62 72 68 95 93 92 68 60 62 69 78 58 46 37 23 23 33 39 40 41 43 44 46 57 76 72 64 57 52 53 52 46 44 52
33 26 29 34 44 50 42 44 45 47 44 59 52 32 62 71 72 66 84 92 97 89 64 53 49 53 52 47 35 26 21 22 26 32 37 40 44 50 81 84 66 51 45 46 48 48 45 47 56
25 28 31 34 46 38 52 48 44 51 46 45 72 54 36 61 54 48 43 40 53 60 54 46 42 44 46 30 21 19 20 22 27 33 36 40 53 85 82 73 51 44 44 41 44 46 47 54 61
33 28 29 32 36 33 37 40 48 43 44 35 53 68 47 34 40 38 39 34 33 32 32 32 34 35 54 57 36 41 49 56 63 69 67 74 80 74 77 61 43 43 41 42 45 49 55 61 66
40 33 31 35 32 33 30 32 39 38 41 38 28 35 45 41 18 26 31 37 41 43 47 49 51 54 54 59 60 63 63 69 71 74 75 76 81 84 86 63 47 46 44 46 51 58 64 66 69
40 36 37 36 35 30 27 29 26 30 36 39 28 26 24 18 22 30 38 41 45 45 46 51 56 60 64 66 68 71 74 74 72 79 79 82 89 91 94 64 54 52 51 54 58 64 68 71 77
35 38 39 42 35 27 29 23 30 35 28 35 38 34 32 29 27 30 33 36 37 39 46 50 53 55 58 65 68 74 76 78 82 82 81 82 89 90 76 62 61 60 58 60 70 72 83 99 100
37 37 40 43 36 35 31 25 24 24 28 37 31 36 42 41 37 37 35 39 48 39 41 44 49 52 54 60 67 73 78 83 82 87 87 92 96 88 83 79 75 67 69 74 76 90 98 96 99
42 40 42 42 39 32 30 28 24 25 24 26 30 28 34 42 39 44 41 42 48 47 49 49 49 51 58 66 73 84 88 90 85 88 85 92 96 92 84 84 87 88 82 87 94 91 98 87 93
40 41 36 34 35 34 40 35 25 28 26 24 24 26 30 37 38 42 46 48 51 55 59 60 61 61 62 92 74 86 86 99 95 81 81 78 93 94 90 90 88 94 95 100 95 96 100 97 94
40 38 36 37 36 28 44 30 26 28 26 27 27 25 28 29 29 33 35 45 50 55 58 62 66 72 90 84 98 99 83 84 89 87 78 82 74 84 86 88 90 98 100 84 92 97 92 86 76
44 40 38 42 34 36 27 28 26 23 26 28 26 29 27 26 26 28 31 35 41 50 59 66 68 73 78 85 78 76 75 93 88 78 80 67 73 80 82 94 97 95 90 95 82 68 100 97 80
42 40 39 38 40 38 28 29 21 27 27 23 22 23 26 28 30 30 32 32 34 37 47 57 68 76 75 84 85 83 88 83 67 57 49 62 72 80 85 82 87 93 92 78 65 99 100 97 96
45 43 40 38 39 35 35 27 28 27 29 32 32 29 26 23 19 25 30 32 34 38 44 48 56 66 69 78 89 68 51 48 40 51 64 67 76 89 99 99 94 86 77 68 73 98 99 96 100
36 36 39 37 34 45 48 34 29 31 32 31 32 32 30 28 26 21 16 29 38 39 37 39 53 60 59 70 45 43 55 60 64 68 76 84 95 98 99 90 94 88 88 79 81 100 100 98 96

GFSSGP_700_rhum_045.txt.gz
RH
19 21 22 31 24 19 15 14 13 19 22 34 44 54 58 36 58 80 88 69 65 48 53 51 70 70 56 47 52 59 58 43 26 17 6 7 16 19 21 21 22 23 26 28 28 28 28 28 27
21 24 26 27 21 13 14 12 15 16 35 61 52 41 52 70 59 56 54 63 69 70 59 58 74 76 58 49 60 72 65 50 22 14 7 14 20 22 23 23 26 30 32 32 33 33 34 33 33
20 24 34 27 19 14 11 15 16 30 43 38 45 62 71 80 50 68 74 65 60 91 76 63 81 79 60 53 65 81 68 53 22 8 13 21 24 24 25 28 33 34 39 39 39 39 41 42 43
34 39 28 18 14 14 12 18 19 27 31 42 39 56 58 55 44 36 48 58 56 67 82 82 66 80 64 62 78 82 68 35 20 9 18 24 26 27 29 35 35 43 43 46 46 47 48 49 50
32 27 22 20 15 14 15 15 18 33 37 51 53 50 65 60 58 46 51 50 49 68 96 98 97 84 71 77 88 79 54 28 14 15 22 26 29 30 35 36 42 43 53 51 50 51 52 55 60
31 25 18 16 13 14 15 18 32 35 48 60 62 53 47 52 57 56 54 72 69 80 96 99 100 95 82 74 70 61 36 22 14 21 27 29 33 34 36 41 45 45 53 56 56 56 55 58 62
28 23 19 15 15 21 34 52 58 52 49 57 76 69 55 60 57 55 58 71 78 83 95 96 100 100 95 78 74 53 29 16 22 26 31 34 35 36 37 47 45 50 52 56 60 60 59 60 60
26 23 18 16 30 37 43 46 66 68 70 42 69 79 74 58 61 57 55 64 97 98 98 90 96 99 97 86 74 70 18 22 29 32 35 38 40 39 47 49 45 51 56 60 55 53 49 60 57
26 23 19 18 22 26 31 43 57 55 54 72 75 69 73 65 63 61 62 65 98 98 84 82 76 99 98 97 96 40 33 36 36 45 46 44 42 40 49 48 45 52 62 62 55 51 52 48 44
28 21 21 22 24 26 33 43 62 46 60 77 64 65 65 66 71 74 73 74 78 90 97 99 95 94 99 96 79 86 48 39 55 50 56 64 48 44 48 46 46 52 63 66 65 65 64 56 42
26 26 25 25 30 32 36 49 68 71 75 94 89 81 68 70 71 78 80 86 86 95 87 98 99 99 100 100 100 86 53 56 65 60 58 59 45 44 46 45 46 49 54 62 68 70 66 67 48
29 28 27 27 32 33 55 52 45 69 80 92 65 70 69 75 78 80 86 84 84 80 85 92 99 100 98 100 98 84 82 72 61 89 70 51 46 44 47 46 46 48 50 59 71 77 74 69 53
29 30 33 41 38 50 50 60 58 44 53 51 41 61 73 85 98 99 93 90 99 98 100 100 100 100 100 100 99 96 88 74 94 83 57 53 48 48 51 49 48 49 53 64 77 75 72 63 47
33 33 46 46 46 52 56 62 78 57 39 36 31 64 85 97 99 100 98 84 83 92 97 99 99 100 99 100 100 95 75 88 88 65 55 54 52 54 51 50 47 52 69 72 71 70 72 48 42
30 31 40 41 50 53 59 65 59 38 46 60 56 39 74 88 83 80 51 90 97 99 97 98 100 100 100 100 100 99 96 91 47 44 49 52 54 56 50 47 50 70 76 71 65 63 46 47 44
26 26 41 34 43 50 58 94 69 66 48 95 91 66 58 83 96 54 63 54 93 100 100 99 91 65 77 90 80 96 98 69 45 43 42 44 49 47 47 48 63 80 70 61 45 52 56 50 46
24 26 37 36 36 48 41 55 68 73 75 86 83 95 64 48 61 59 94 78 60 63 78 84 79 89 92 66 74 80 75 40 33 40 40 42 44 46 45 56 81 79 56 47 50 54 52 49 48
19 21 24 30 56 36 38 46 56 68 64 75 79 89 58 44 58 42 56 93 66 49 49 54 60 69 68 50 34 27 24 29 35 37 39 46 44 43 45 72 73 78 52 48 47 45 48 50 53
24 23 26 34 28 28 31 29 53 61 69 63 77 83 58 43 30 38 29 37 56 60 45 34 36 48 51 44 28 23 19 19 21 25 30 34 40 42 58 81 76 76 61 48 43 46 48 53 59
27 24 21 25 28 29 28 34 28 49 57 61 61 73 79 83 30 31 42 70 38 37 32 31 39 60 75 66 30 24 24 27 36 47 66 65 64 68 79 80 86 88 64 48 46 48 52 63 66
30 28 34 26 35 30 27 25 26 34 51 58 58 64 77 79 46 28 36 60 44 46 44 46 46 49 54 61 59 51 54 56 61 66 66 72 77 81 86 92 96 91 86 56 51 56 66 73 73
28 28 30 31 29 27 32 32 35 31 41 56 58 58 61 69 72 32 36 39 42 44 47 50 53 55 58 60 64 64 65 67 69 73 79 82 82 80 86 87 90 90 81 67 63 65 76 80 92
30 37 35 33 32 29 25 20 32 26 29 36 50 57 55 58 63 43 32 35 37 42 44 46 48 51 54 56 60 67 69 72 74 78 80 84 87 91 94 92 93 89 88 88 78 69 83 99 94
35 39 36 35 31 33 25 22 38 23 20 20 31 46 55 54 57 45 43 32 40 39 40 43 46 48 50 52 57 62 66 68 75 96 89 92 93 91 88 94 93 92 94 89 96 82 89 100 99
38 37 35 34 33 34 39 25 23 35 24 25 28 30 41 55 58 61 66 59 43 50 50 51 48 48 49 51 60 59 71 69 77 97 98 97 88 86 84 84 88 90 88 89 97 93 99 89 92
37 35 36 65 34 27 36 24 24 26 30 30 31 34 36 44 56 60 59 64 69 47 48 52 54 56 57 59 69 77 90 84 66 76 91 84 85 88 88 80 80 83 86 95 97 99 86 100 98
32 34 33 44 36 32 27 22 22 23 24 27 30 38 41 44 44 52 59 63 70 86 75 52 56 65 71 75 86 92 100 94 65 74 94 87 79 67 60 74 84 85 90 98 100 94 100 91 67
36 37 36 35 39 45 22 22 21 26 24 25 25 30 37 45 36 47 52 59 69 81 94 69 52 62 69 77 83 95 95 91 76 79 86 63 38 43 58 72 84 89 93 99 97 96 95 71 89
38 40 36 34 35 41 36 24 30 24 25 26 29 30 32 35 41 32 34 38 44 65 82 39 37 46 56 60 73 79 84 87 71 56 57 48 60 72 78 83 90 93 100 96 100 98 98 88 85
36 34 34 34 32 35 36 33 28 27 27 30 32 33 35 37 42 44 19 18 23 31 37 40 47 49 57 56 62 72 80 82 42 53 60 66 72 76 85 88 92 99 99 98 100 91 97 94 98

GFSSGP_700_rhum_048.txt.gz
RH
12 14 17 31 31 26 20 16 15 12 20 35 42 36 42 43 48 50 56 55 50 97 96 74 78 72 60 47 47 53 49 31 17 12 5 8 14 17 18 18 18 20 24 27 26 26 27 27 27
13 16 34 33 28 22 14 13 11 16 32 29 38 40 33 39 50 56 60 51 45 68 99 86 82 70 59 54 63 70 57 38 19 10 7 12 18 20 20 20 24 28 30 30 32 33 33 34 33
15 16 37 32 27 20 15 17 20 19 32 35 34 32 46 69 69 41 53 50 68 61 75 91 88 73 69 58 71 80 67 44 21 8 12 17 21 23 22 26 31 34 36 37 38 41 42 41 40
22 39 37 26 16 13 13 16 20 21 24 27 34 32 70 80 87 61 51 60 66 52 63 69 92 94 78 73 84 90 72 48 21 8 17 22 24 26 28 32 38 38 43 45 45 48 48 50 51
35 29 25 21 18 18 13 13 14 17 25 30 33 32 66 71 75 55 45 47 51 59 60 62 74 99 100 77 87 95 76 37 14 12 21 26 28 29 34 37 40 48 47 48 50 52 55 60 57
38 30 22 18 18 16 16 16 16 21 27 35 52 71 47 51 63 65 56 69 64 65 71 72 71 86 89 87 94 91 61 25 10 19 25 30 30 36 37 42 46 54 52 54 56 55 55 57 53
31 26 21 18 22 31 22 25 27 54 49 45 56 60 53 53 81 73 70 75 74 64 83 96 95 96 96 100 96 78 41 15 16 23 29 33 35 38 44 47 50 55 56 59 56 52 51 56 52
27 22 20 20 20 28 34 38 49 46 56 59 41 59 83 82 76 67 71 81 77 88 98 96 90 96 99 96 81 50 33 44 32 30 35 37 43 41 50 47 53 57 60 52 46 42 38 39 37
26 24 24 24 26 26 27 30 38 61 59 63 88 70 81 75 71 68 69 76 77 85 85 88 94 92 82 92 93 42 33 28 30 37 44 47 47 43 50 47 53 62 64 57 54 58 56 45 34
23 24 28 23 22 26 28 32 46 54 63 56 56 92 94 75 75 71 69 69 78 86 87 89 95 100 99 84 91 51 37 41 46 55 51 52 44 52 48 46 48 59 63 60 60 62 62 60 43
24 23 26 23 26 28 28 36 45 55 64 44 39 57 96 76 70 70 72 73 82 78 80 96 98 99 96 95 91 95 72 61 65 70 55 54 54 54 49 47 47 52 54 55 59 62 68 58 51
24 22 26 25 30 32 31 49 59 65 41 35 35 55 65 65 66 80 85 87 84 83 100 99 100 100 100 100 98 100 98 88 76 72 80 78 73 53 48 48 49 47 48 53 62 71 65 67 61
24 24 26 33 38 36 40 48 74 69 32 30 32 37 51 76 71 97 100 93 90 93 95 100 100 100 100 99 100 100 94 82 83 88 92 86 58 54 49 50 50 48 49 58 63 61 67 68 53
24 29 27 38 36 44 51 53 74 90 37 31 25 26 50 63 80 99 98 86 97 96 100 94 100 99 100 100 100 99 93 93 96 94 84 61 66 52 50 49 49 51 55 68 68 54 52 53 48
27 25 26 35 40 39 44 51 45 78 90 39 27 32 44 68 83 86 65 56 72 91 97 98 100 98 98 100 99 99 100 97 92 84 65 75 61 53 52 52 49 52 61 73 66 57 47 47 45
28 24 24 31 41 60 44 56 61 82 92 92 56 42 39 87 73 44 59 86 95 100 99 94 99 100 100 99 100 99 91 74 69 67 63 64 60 58 55 50 51 53 73 75 56 56 51 42 41
26 23 26 29 35 48 53 78 53 76 79 78 88 70 41 48 47 42 38 58 80 95 98 97 79 91 98 99 96 93 98 90 86 48 51 58 58 55 52 49 54 60 84 67 50 48 42 43 49
22 22 22 33 37 34 40 66 46 79 65 75 84 43 40 43 40 33 51 39 50 71 81 73 62 52 66 98 91 73 71 73 56 41 40 48 48 46 53 57 64 71 74 59 50 45 46 53 49
19 20 28 32 36 31 26 30 43 48 58 70 77 49 33 33 32 27 34 43 39 47 68 69 73 77 72 57 61 57 53 40 33 34 39 39 41 46 48 49 68 76 69 54 51 50 52 56 53
22 21 22 21 29 27 21 26 40 46 56 60 70 63 32 28 24 35 28 26 28 26 28 35 50 55 62 59 44 26 25 26 29 32 32 35 48 49 43 48 59 74 79 76 68 63 55 55 56
24 23 25 34 31 30 26 22 33 43 49 54 57 67 61 15 20 27 34 37 39 34 29 36 52 60 67 70 36 28 23 23 24 28 35 39 59 70 65 65 78 72 91 90 83 81 68 62 62
24 25 25 29 28 24 30 29 29 30 49 50 52 58 57 37 16 26 33 32 38 43 43 42 47 60 64 68 66 46 49 42 53 55 61 67 72 76 80 80 85 83 86 93 90 88 86 82 82
26 34 33 30 27 26 30 35 26 31 39 44 48 56 60 58 36 28 33 36 35 38 39 47 49 50 49 55 76 95 98 58 63 63 64 67 74 85 87 87 88 96 99 99 99 96 91 98 90
29 31 36 34 32 35 28 25 37 32 40 31 42 51 56 57 61 50 30 33 36 38 37 37 39 42 48 56 59 64 100 81 76 76 69 70 80 87 89 94 97 97 96 100 99 99 93 98 100
31 33 37 39 39 41 28 27 30 29 27 26 30 38 49 53 54 62 48 29 30 35 35 39 44 46 48 48 51 62 67 84 74 68 74 80 94 96 99 96 88 93 88 96 100 94 100 100 99
35 33 40 65 69 52 38 28 25 33 30 27 27 28 39 47 53 55 59 53 32 28 36 38 44 49 47 46 47 58 58 59 71 91 82 91 86 76 84 93 91 93 99 89 100 100 98 99 100
33 34 33 53 50 58 45 31 29 27 24 26 28 31 36 34 48 53 58 62 63 51 36 47 51 50 48 51 64 83 56 86 84 83 90 82 80 83 80 76 71 70 64 88 92 89 98 100 98
33 34 34 32 52 56 26 22 24 28 24 24 24 30 38 42 43 43 50 57 60 62 65 65 57 56 59 59 61 67 79 80 93 96 82 84 89 86 65 53 67 73 79 85 87 93 100 97 90
33 34 44 38 33 49 49 33 34 31 25 24 26 27 31 36 41 34 44 51 58 63 67 75 76 87 81 76 57 72 84 85 90 94 89 82 72 69 56 67 69 74 82 90 97 100 99 97 99
34 33 38 37 41 45 46 41 32 32 27 26 30 30 32 34 41 44 24 29 51 62 72 78 84 92 90 66 73 75 79 78 73 60 81 67 64 64 68 68 68 74 82 92 99 100 98 100 99

GFSSGP_700_rhum_051.txt.gz
RH
10 15 18 31 34 35 29 24 22 18 17 20 17 23 31 35 31 47 55 61 59 56 59 93 97 89 77 60 54 45 36 23 14 6 4 8 12 14 15 15 14 16 22 23 24 24 23 23 23
12 18 22 31 32 31 27 21 19 25 29 25 24 31 35 37 30 40 55 49 39 42 46 63 99 97 77 81 68 57 38 22 14 5 6 11 16 17 17 16 19 24 26 26 28 28 29 29 30
15 33 30 34 32 32 26 18 20 18 21 33 29 34 36 45 44 34 38 41 43 48 59 61 66 100 91 96 82 70 44 23 17 6 9 14 18 19 18 21 26 28 31 33 35 36 37 37 36
26 36 37 33 25 22 22 24 17 18 19 23 34 42 69 57 43 62 55 46 38 47 49 71 59 96 98 98 87 82 54 25 18 8 13 18 21 21 24 28 33 35 37 39 41 43 43 45 43
31 34 33 32 27 22 24 21 14 17 19 20 22 36 48 56 69 82 66 54 46 47 63 65 83 88 92 99 100 90 58 27 15 9 16 21 22 24 31 37 38 43 42 44 46 49 52 52 48
34 39 38 31 26 28 22 16 14 14 24 44 50 53 45 39 56 62 69 72 54 66 78 72 81 72 77 88 99 92 63 24 11 13 21 25 26 29 36 42 46 46 48 49 49 50 52 49 50
31 30 28 24 21 22 21 26 25 30 43 51 55 53 52 66 50 63 81 90 74 81 79 65 69 75 75 98 100 92 48 19 12 22 26 29 31 35 43 48 49 47 51 49 47 44 49 49 48
36 34 26 22 26 24 27 32 40 46 46 54 57 54 62 72 57 71 97 79 81 97 89 88 90 85 96 100 97 66 31 13 20 26 30 33 38 42 48 52 50 54 47 39 35 33 34 38 34
27 27 25 25 26 27 28 29 38 42 45 45 46 61 47 62 81 80 98 94 82 88 98 72 88 99 95 98 90 60 16 25 28 30 35 41 42 50 50 58 58 61 51 49 54 54 49 38 31
29 26 23 26 28 26 26 26 42 41 48 50 50 40 48 56 78 87 89 85 70 88 98 90 99 80 79 94 86 90 21 34 44 35 43 47 46 53 52 50 45 62 56 53 54 59 59 54 40
24 24 23 23 26 33 31 30 51 63 58 40 34 40 57 65 73 74 71 65 61 74 88 95 98 95 88 86 91 91 50 59 41 43 52 56 52 61 62 65 48 53 55 49 53 64 65 60 49
26 26 22 24 29 32 34 41 49 48 87 42 28 30 43 56 62 67 68 65 58 67 81 91 90 96 100 95 96 100 88 65 42 57 78 72 68 87 79 60 50 50 55 51 60 69 65 52 46
29 24 25 28 30 39 39 40 46 48 58 59 39 35 46 68 99 94 85 80 72 78 89 91 85 98 100 99 99 99 93 40 49 72 74 83 80 87 68 54 52 49 51 57 67 61 51 55 53
30 25 25 27 28 38 44 46 48 62 65 77 48 46 60 64 100 98 99 96 89 97 96 79 95 95 97 100 99 100 100 81 67 83 84 94 82 71 65 57 53 47 51 62 67 60 50 54 44
35 34 30 24 26 39 43 55 54 58 70 72 69 58 52 85 85 96 97 72 89 98 99 99 97 92 99 100 100 100 100 98 88 83 99 92 76 70 67 57 60 63 59 62 67 61 49 42 40
35 31 29 24 26 38 46 48 51 52 52 80 81 55 52 80 56 59 64 72 81 98 98 100 100 100 96 100 100 99 96 96 97 97 91 78 66 65 62 69 54 70 53 69 72 49 42 39 36
29 35 27 24 34 35 42 49 51 45 66 61 80 52 32 35 46 46 54 78 98 100 100 99 95 100 100 100 100 100 100 99 97 83 76 69 58 63 61 56 58 49 53 77 72 54 47 44 41
30 30 25 29 31 34 32 40 45 45 54 51 82 47 34 34 35 24 37 45 55 78 74 62 76 95 99 99 98 98 100 82 87 65 70 66 59 58 58 55 63 50 60 80 68 53 51 46 40
30 28 25 20 29 31 31 37 36 40 47 45 79 54 35 20 20 28 19 26 46 45 37 36 35 55 82 97 85 57 64 62 64 64 53 55 50 50 52 56 54 54 78 79 78 62 56 51 48
35 27 22 31 36 36 28 30 40 42 46 38 49 45 31 23 26 25 22 19 21 45 60 65 61 43 42 47 62 54 52 57 55 48 42 40 43 48 51 51 53 48 71 80 80 85 83 78 68
31 26 22 28 30 30 28 41 42 48 66 58 63 52 47 15 19 32 34 32 24 25 36 46 53 56 53 55 56 63 75 65 38 33 34 34 34 56 76 53 53 56 72 80 88 90 97 100 96
26 23 25 28 30 28 29 34 44 50 56 51 58 56 36 14 14 24 32 36 38 36 40 47 48 51 58 56 32 28 23 25 26 26 28 36 54 49 64 77 74 70 76 90 97 98 100 100 100
26 25 29 35 34 31 29 34 29 33 55 49 60 53 38 25 18 21 28 32 39 41 40 40 42 44 46 45 41 49 60 34 38 40 45 52 55 78 90 86 91 92 88 95 97 97 100 98 100
30 31 30 35 36 45 32 33 34 35 38 46 43 56 49 33 28 25 30 32 30 34 39 44 44 46 48 51 54 58 88 65 64 59 62 71 93 89 85 97 97 95 94 90 88 86 89 100 100
31 30 40 59 59 60 38 38 30 28 27 31 37 52 49 46 46 42 30 29 31 29 28 31 36 42 46 51 52 56 74 71 73 72 70 75 77 85 91 90 97 93 83 78 82 91 96 88 99
32 31 41 73 86 65 38 39 32 27 28 30 31 31 44 44 47 50 49 45 31 27 29 30 34 40 45 48 52 56 64 62 65 78 73 74 80 86 86 78 74 76 80 84 91 89 83 100 99
34 34 33 50 63 72 47 35 35 32 29 28 28 36 33 43 49 50 52 53 54 52 28 28 34 39 44 49 52 51 57 70 68 76 88 80 88 83 81 87 86 72 58 61 68 74 84 92 90
33 35 35 42 77 96 46 45 36 34 29 24 28 29 30 39 47 48 47 48 48 49 53 54 40 43 49 49 49 50 49 61 78 78 88 86 89 86 82 82 71 56 65 65 64 85 90 97 76
34 33 33 38 45 64 59 40 32 35 29 29 24 30 38 40 40 50 55 58 54 55 58 62 65 94 81 70 70 67 73 70 80 87 94 98 95 96 84 80 70 66 68 64 74 88 99 99 76
32 34 31 40 46 49 58 41 34 34 32 28 27 27 29 29 34 33 34 51 57 62 68 66 64 66 51 52 67 79 76 97 62 96 95 87 72 83 68 67 70 69 64 72 90 93 92 82 100